GFSCGP_prec_cthk_000.txt.gz
RH
11 13 13 11 11 10 14 15 15 14 17 16 15 14 13 13 14 13 12 12 12 12 13 13 13 14 15 16 18 19 20 21 22 23 23 24 24 22 20 19 18 16 16 15
16 15 11 13 15 13 14 14 14 13 16 17 15 15 12 11 12 12 11 12 12 13 14 15 15 16 16 17 19 19 21 22 23 24 25 26 24 22 21 20 19 19 19 18
15 13 12 13 14 15 15 14 14 15 17 16 16 17 12 11 11 12 12 12 12 13 15 18 18 18 17 18 19 21 22 22 23 27 28 26 24 23 22 21 19 20 20 20
16 14 15 14 14 13 15 15 14 15 17 20 18 23 14 12 12 11 12 14 14 16 18 19 18 18 18 19 20 21 23 24 26 28 27 26 25 24 23 22 21 21 21 20
17 17 17 16 14 14 16 17 18 19 20 21 19 25 15 13 13 12 13 14 15 16 17 18 19 19 19 19 20 22 24 26 27 28 28 27 26 25 24 23 22 22 21 21
15 18 16 15 16 17 19 20 20 21 24 30 19 21 16 14 14 14 13 13 15 15 16 17 19 20 20 20 21 24 26 28 28 28 27 28 28 27 26 24 24 23 23 19
16 16 16 17 20 20 20 22 28 37 42 32 17 20 15 14 14 14 14 14 15 15 17 18 19 20 21 21 24 25 27 30 29 29 30 30 28 27 26 25 24 24 20 15
22 22 20 18 18 20 22 22 26 29 31 27 27 28 19 16 15 15 14 15 16 17 17 19 19 21 23 23 27 28 31 32 32 31 31 30 29 28 26 25 24 22 16 14
22 20 21 21 21 22 25 28 22 28 24 29 21 19 17 15 15 17 16 17 17 16 18 19 20 22 24 27 29 30 32 33 32 33 32 32 31 28 26 25 24 18 15 15
26 28 24 27 27 25 26 28 33 34 32 30 20 18 20 16 20 21 18 17 16 18 19 19 20 23 26 28 29 31 34 34 34 34 35 34 31 28 25 24 20 17 15 16
32 38 36 36 30 26 29 30 31 29 26 26 23 21 15 15 17 17 19 17 19 20 20 21 22 24 27 29 31 34 34 35 35 37 36 34 31 27 26 20 16 15 16 18
38 43 40 39 35 36 35 32 32 33 28 26 24 21 15 17 18 18 19 21 21 21 22 23 23 25 28 31 34 34 35 36 37 38 37 34 30 28 22 17 16 16 17 18
45 49 48 43 46 42 37 36 35 34 34 32 32 24 19 22 21 20 22 22 22 23 25 25 24 27 32 35 36 35 37 38 39 40 36 33 29 25 18 15 15 16 17 17
56 55 53 47 39 44 45 41 39 42 43 31 35 28 27 25 27 26 27 25 25 24 26 25 27 33 36 36 35 38 40 41 42 40 37 32 29 21 17 16 15 15 17 18
69 66 55 52 48 48 48 47 44 42 34 41 29 30 26 29 32 30 29 29 27 26 26 28 34 37 37 36 37 39 42 43 42 39 35 31 26 20 17 15 14 15 18 19
92 88 65 62 55 53 54 50 50 46 39 39 38 29 25 29 32 32 33 31 29 28 26 30 36 38 37 37 40 42 44 44 42 40 34 31 24 19 17 16 16 16 17 19
97 98 97 92 61 56 64 46 45 48 46 40 40 25 31 30 36 35 33 34 33 31 30 34 38 39 39 41 42 46 46 44 43 38 35 28 22 19 17 17 16 15 17 19
75 91 98 97 93 86 54 42 44 52 44 42 39 31 34 34 35 34 35 33 32 33 37 39 40 41 43 44 47 47 46 44 42 37 32 26 22 19 17 16 14 14 17 21
53 67 92 98 97 88 67 47 46 46 44 41 40 36 37 36 39 35 36 34 34 37 39 41 43 44 45 48 51 50 48 45 39 35 29 24 22 19 16 13 13 16 19 24
59 72 93 98 98 98 70 51 49 56 56 44 43 38 39 42 44 36 37 37 40 43 45 47 48 48 50 54 52 51 49 43 38 34 28 25 21 18 15 14 14 18 23 27
48 57 68 85 93 95 83 70 64 68 51 52 48 44 45 47 42 40 39 41 48 51 55 54 53 53 52 53 53 52 48 43 39 34 29 25 20 18 16 16 17 21 25 31
64 67 61 75 84 93 88 79 85 91 74 64 57 52 47 47 47 46 45 52 58 60 59 58 58 56 55 55 56 52 47 42 40 33 28 24 19 18 18 18 19 23 27 35
68 89 92 97 89 76 86 95 93 90 89 74 64 58 55 55 56 56 55 56 59 62 64 63 62 60 58 57 55 52 49 46 40 31 27 23 22 21 20 20 21 25 32 41
46 47 56 70 52 61 69 84 83 81 94 88 74 64 62 61 60 60 60 61 63 65 69 66 65 62 60 58 57 54 50 47 38 30 26 25 23 22 21 22 24 29 39 47
49 56 44 45 32 51 60 64 73 73 84 85 83 77 69 65 66 64 64 64 63 66 72 70 66 63 62 63 59 53 51 44 33 29 26 24 23 23 23 23 27 36 47 55
46 48 61 56 64 67 54 53 67 83 86 85 89 86 84 76 70 68 66 68 67 66 75 70 66 65 68 63 59 51 46 38 33 29 26 24 23 23 24 25 32 46 55 60

GFSCGP_prec_cthk_003.txt.gz
RH
10 12 15 11 10 9 12 14 15 14 14 16 17 15 14 14 14 12 11 12 11 10 10 11 11 11 11 12 13 14 15 15 17 19 20 22 22 22 22 19 19 18 16 17
15 17 10 11 13 14 14 14 14 13 15 16 16 15 13 13 13 11 10 11 11 12 12 12 12 11 11 13 15 16 16 16 19 20 21 22 23 23 21 20 20 18 18 20
16 13 13 13 14 16 15 15 15 15 15 18 18 17 15 11 12 11 11 11 12 11 11 11 12 12 14 15 16 16 16 18 19 21 22 24 24 23 21 21 20 20 22 21
16 12 12 14 14 15 16 15 16 16 17 21 17 20 16 13 11 11 11 12 11 12 12 13 14 14 16 17 17 17 17 18 20 21 23 25 24 23 23 22 22 23 22 20
15 15 15 16 14 14 17 16 16 17 19 20 19 26 17 13 12 10 10 12 13 13 13 14 14 15 16 18 17 17 17 19 21 23 26 27 26 25 26 25 24 23 22 21
15 14 15 14 15 16 17 18 19 22 26 33 23 25 11 13 10 9 10 11 13 14 14 15 15 15 16 17 18 18 18 20 24 25 27 29 28 28 27 26 25 24 23 21
15 16 16 16 17 18 18 22 30 35 43 32 19 24 12 11 12 13 12 13 13 14 15 14 14 15 16 18 19 18 19 23 26 29 31 30 29 29 28 27 26 25 22 21
27 23 19 18 18 20 23 23 32 36 42 24 24 29 17 13 13 16 16 15 15 14 15 15 16 15 16 18 19 21 21 25 29 31 31 31 32 31 30 29 27 25 23 17
33 28 23 21 22 22 27 29 21 28 26 31 23 18 15 15 16 16 16 14 14 16 16 15 15 17 18 20 21 23 25 28 29 32 33 33 33 33 31 29 26 24 21 15
35 37 29 28 31 29 32 30 36 37 39 39 24 22 18 13 12 14 16 17 16 16 15 15 17 17 19 21 22 25 27 29 31 34 35 35 35 35 33 29 25 24 18 15
41 48 35 39 37 32 37 37 39 37 40 37 29 25 15 12 12 14 16 16 16 18 17 17 20 20 22 22 23 26 29 31 35 35 35 36 38 37 34 28 26 21 16 15
56 57 43 40 38 40 41 40 41 44 42 40 32 24 15 15 17 17 18 18 19 20 20 21 21 21 23 23 23 27 31 35 36 36 37 40 40 37 33 28 26 19 16 14
78 70 61 46 45 43 47 45 46 43 45 40 38 27 21 22 22 22 21 21 21 24 24 25 24 25 25 24 25 30 36 36 37 37 40 42 41 38 32 29 23 18 15 14
88 83 76 65 47 51 55 52 49 52 54 38 39 29 27 27 27 27 27 26 26 27 26 28 29 27 26 25 29 36 38 37 38 39 42 43 41 39 33 28 21 17 15 14
83 94 96 89 81 74 68 57 54 54 46 49 33 36 28 30 33 30 28 30 29 30 30 29 28 29 29 28 34 38 39 40 40 42 44 44 42 38 34 26 20 16 16 15
78 92 91 76 88 94 94 77 66 53 50 48 43 36 35 33 33 33 32 33 33 31 31 30 30 31 30 31 37 39 40 41 42 44 45 44 43 38 32 24 20 17 16 15
54 60 67 72 65 77 90 87 73 67 58 54 55 32 44 40 38 36 38 39 35 32 32 31 32 33 31 34 38 39 42 42 44 46 45 45 42 37 30 23 20 18 17 15
40 43 60 70 66 82 57 68 84 79 69 59 53 42 49 45 43 42 42 39 38 35 33 33 33 33 35 38 40 43 44 45 47 46 46 46 41 37 28 23 20 18 16 14
38 52 70 77 67 61 53 56 60 88 86 81 71 59 58 54 55 48 42 43 39 36 34 35 35 35 40 42 46 48 48 49 49 48 49 45 39 32 26 23 20 17 16 15
48 58 82 72 83 90 49 58 81 79 87 96 89 78 72 65 64 39 44 45 41 39 37 36 37 40 44 50 52 52 51 51 51 50 47 41 36 31 27 24 19 17 17 17
61 63 75 75 81 76 37 32 50 76 98 98 97 92 81 73 62 45 49 47 42 41 39 40 41 46 53 56 56 56 55 55 54 51 45 42 38 32 28 24 19 18 19 20
89 88 82 91 90 77 60 60 73 92 95 94 96 96 82 72 57 50 49 49 46 45 44 51 55 57 59 60 61 60 58 57 55 50 45 43 39 32 28 23 19 18 19 21
84 79 78 81 61 56 56 55 51 60 75 74 86 93 93 79 68 58 56 55 52 57 60 61 63 64 64 64 61 60 60 59 55 50 48 45 36 32 27 23 19 19 22 25
60 76 82 77 42 45 39 30 35 58 67 67 88 93 98 91 75 66 64 61 61 65 65 67 67 66 64 63 63 64 62 60 56 52 48 41 35 31 26 22 20 22 24 29
66 64 65 72 45 50 41 38 47 58 61 60 79 93 99 96 91 75 65 63 63 62 60 63 66 67 65 67 66 66 63 61 56 50 45 39 34 29 24 21 21 22 27 38
65 65 78 65 45 61 41 36 44 45 53 62 73 79 87 95 96 90 74 60 60 59 65 69 68 71 71 72 70 70 66 61 54 51 44 37 33 27 23 21 21 24 37 46

GFSCGP_prec_cthk_006.txt.gz
RH
10 12 15 12 10 9 10 12 12 11 12 16 16 14 11 12 15 14 12 12 11 10 9 11 11 11 11 11 12 11 11 11 13 14 16 17 20 21 21 22 21 18 18 18
14 16 8 10 11 12 12 13 13 12 11 15 16 15 12 14 14 12 11 11 11 11 11 11 12 12 12 12 12 12 13 14 15 16 17 19 21 22 23 23 20 19 20 20
16 12 11 12 13 15 15 15 15 14 13 15 16 16 14 11 12 11 11 11 11 11 11 11 12 13 13 12 12 13 15 16 17 18 18 20 22 23 25 23 21 22 22 22
17 11 12 17 17 15 16 14 16 17 18 21 17 17 14 13 11 11 11 11 11 11 11 12 12 12 12 14 16 16 17 17 18 18 19 21 23 25 26 24 24 24 24 24
16 14 16 15 13 14 16 16 18 19 20 21 19 25 15 13 13 9 9 9 9 11 12 12 11 13 14 16 17 18 18 18 17 18 20 22 25 27 27 26 26 25 26 25
18 16 18 17 16 16 17 19 22 25 26 31 19 23 13 13 11 9 8 8 8 8 12 12 13 14 15 16 18 19 19 18 18 18 20 25 27 30 30 27 27 27 27 26
21 17 16 17 20 20 20 24 32 33 39 29 18 25 13 10 9 9 9 9 9 10 12 12 14 14 15 16 17 18 19 18 18 19 22 26 31 32 30 29 29 29 28 27
30 23 24 22 22 23 27 27 33 37 36 21 25 28 14 11 10 9 10 12 12 13 13 13 13 15 15 16 17 18 19 20 20 21 25 29 32 32 32 31 31 30 29 28
35 32 27 27 27 28 29 35 28 33 32 37 30 24 16 14 14 12 11 13 14 13 13 13 15 15 15 16 18 18 21 22 22 24 28 31 32 35 33 33 32 32 30 28
37 36 29 31 33 33 36 35 43 46 47 46 31 30 21 16 14 13 13 13 13 13 15 15 13 14 15 17 20 22 24 23 24 27 30 32 35 36 35 35 35 32 30 28
51 50 32 37 39 40 45 44 47 47 51 45 40 30 21 19 18 17 16 14 14 14 17 18 16 16 17 18 23 24 25 24 25 29 31 35 37 37 37 38 36 32 30 28
64 72 60 46 47 45 44 46 50 58 48 55 45 32 22 23 23 24 22 20 19 20 19 21 22 19 19 21 24 27 27 25 26 30 35 38 38 39 40 40 37 33 31 28
81 80 82 66 60 63 64 58 60 57 56 56 54 37 27 28 28 29 30 28 27 26 25 26 25 23 23 23 27 30 26 26 29 34 37 38 39 41 42 41 38 34 32 27
86 95 97 91 95 94 94 90 89 89 69 61 58 42 32 34 36 35 33 33 33 32 33 32 32 27 27 28 32 30 28 28 32 37 38 39 41 42 43 42 38 35 32 24
71 84 84 87 83 80 81 83 86 97 95 95 67 63 39 39 41 39 38 36 34 34 33 32 31 30 30 32 32 31 31 30 35 39 39 41 42 44 45 43 38 35 30 24
38 46 45 67 57 62 65 67 64 74 73 86 84 70 57 43 42 42 45 44 40 38 34 33 33 34 32 33 34 33 34 33 39 40 41 43 45 46 46 44 39 35 28 24
37 40 43 49 33 48 61 46 51 52 53 68 91 95 81 69 55 44 44 47 42 45 42 39 36 36 35 35 36 35 35 35 40 42 44 45 47 48 47 44 39 32 27 25
45 47 65 67 48 68 32 39 37 42 56 84 89 93 95 93 71 54 45 42 43 46 50 49 42 37 36 37 38 37 36 40 43 44 47 48 49 49 49 42 36 32 28 25
62 79 92 97 82 66 51 31 60 77 62 70 82 90 96 92 91 56 57 57 52 55 50 48 47 44 41 39 40 39 39 42 46 48 51 51 51 52 47 41 37 33 30 24
55 64 85 86 95 80 26 45 72 70 70 68 88 89 80 85 94 72 72 66 54 52 49 50 52 47 43 43 42 39 43 47 48 51 53 53 53 51 45 41 37 33 28 23
64 77 93 95 97 88 64 71 68 82 86 80 74 68 76 91 96 85 84 67 58 53 53 52 51 49 48 46 43 44 52 52 53 55 56 55 54 50 43 41 37 30 27 22
82 84 83 85 96 77 69 75 79 77 71 60 57 55 62 90 94 94 92 80 62 56 53 52 52 50 50 46 46 57 58 58 59 59 60 59 54 46 43 41 35 30 26 21
87 78 81 85 72 55 52 64 62 62 65 64 61 51 56 77 91 96 95 87 67 60 57 56 52 50 48 55 63 63 62 63 63 63 62 57 50 48 45 40 34 30 24 20
68 75 85 98 64 64 60 59 61 59 60 50 48 45 49 64 74 92 94 92 76 68 65 61 61 65 69 69 68 66 66 66 65 63 61 56 52 49 45 39 34 29 22 19
83 85 79 84 64 75 50 43 51 50 45 40 38 39 44 60 67 87 92 95 88 70 72 74 74 72 73 73 73 70 69 68 67 67 63 58 55 51 45 39 34 26 20 20
65 76 92 73 67 64 43 52 47 48 45 43 39 36 41 51 64 85 92 94 93 80 71 67 71 71 73 74 78 75 77 74 71 69 63 58 54 50 45 39 30 23 20 23

GFSCGP_prec_cthk_009.txt.gz
RH
11 13 14 12 11 10 10 12 11 10 8 13 14 14 10 9 13 13 12 11 11 11 9 11 11 12 12 12 12 12 11 11 11 11 11 12 14 16 18 19 20 21 20 18
15 17 10 10 12 14 15 14 14 11 10 15 14 13 11 10 12 11 12 12 11 10 11 11 11 12 12 12 12 12 12 12 12 12 13 15 17 18 19 21 22 22 21 20
17 11 12 14 13 15 15 16 15 13 11 14 17 15 14 10 9 10 9 8 9 9 9 10 11 12 12 12 12 12 12 12 13 14 16 18 19 19 20 22 23 24 22 21
17 10 12 14 16 15 16 14 16 18 20 24 18 18 13 12 10 9 9 8 8 8 9 11 11 12 12 12 13 13 14 14 15 17 18 19 20 20 21 23 25 24 23 24
18 16 18 21 15 15 19 16 18 20 23 24 23 28 13 14 13 10 8 8 8 8 8 10 11 11 12 13 12 13 16 17 19 19 20 20 20 21 23 26 27 26 25 24
20 19 20 20 19 21 20 23 23 27 29 33 20 27 14 12 11 10 9 8 8 8 8 9 10 12 13 13 14 16 18 19 19 20 20 20 20 21 25 28 30 28 26 26
23 22 22 21 23 23 25 28 36 36 43 31 22 28 14 10 11 11 11 9 8 8 8 10 12 12 14 14 15 17 18 19 20 20 21 20 20 23 26 31 31 28 28 28
29 25 22 22 25 28 30 31 35 43 39 25 30 32 16 14 12 12 12 12 11 10 10 12 13 14 16 16 17 18 19 20 20 20 21 21 22 25 30 33 31 30 31 31
32 29 24 26 27 30 31 37 34 43 33 43 29 25 19 16 16 15 14 14 15 13 13 14 16 17 17 17 17 18 19 20 20 22 23 22 24 28 32 33 32 33 33 32
47 42 33 33 32 32 38 37 46 54 56 53 36 34 26 20 18 18 19 18 17 16 15 16 18 17 18 19 17 17 19 20 22 24 25 25 26 30 33 34 35 35 35 34
57 58 43 46 46 48 48 53 57 62 65 60 54 38 29 27 24 24 23 22 21 21 20 19 19 21 20 20 19 19 21 23 25 27 28 26 27 31 34 37 37 37 37 35
69 74 68 54 48 48 51 56 64 74 71 73 63 47 36 35 36 33 31 30 28 28 28 23 21 24 26 24 23 23 23 24 27 30 29 26 28 32 38 38 38 39 39 36
53 58 71 52 52 69 79 79 84 94 97 96 90 64 46 51 48 46 44 41 37 33 33 32 31 32 32 32 27 25 25 27 30 31 30 28 31 36 40 39 40 42 40 37
36 49 66 74 64 60 64 67 74 87 96 90 90 88 64 57 52 49 49 45 40 38 39 35 34 35 36 37 32 30 29 33 35 35 32 32 35 39 40 40 42 44 41 39
40 44 39 35 33 34 39 50 65 66 72 90 65 65 52 55 61 58 61 58 50 43 39 41 39 38 39 41 39 34 34 37 40 37 35 34 38 41 41 42 45 45 43 40
35 49 42 47 33 32 37 35 36 39 32 45 57 73 64 66 76 72 70 71 58 47 47 42 41 43 42 40 40 34 38 41 42 40 39 37 39 43 43 45 48 47 44 41
42 48 60 67 41 52 60 29 29 33 29 37 57 70 80 86 83 82 77 77 71 59 50 48 47 43 48 42 39 40 41 43 43 42 42 39 41 45 46 48 50 48 45 42
51 51 72 78 80 93 69 58 69 68 63 74 76 85 89 75 68 72 70 74 74 73 64 52 51 51 46 48 51 47 44 42 43 43 43 41 46 48 48 51 52 49 46 42
53 68 87 82 78 61 49 63 75 70 64 74 95 88 85 75 66 56 63 70 77 77 75 58 55 55 55 49 48 53 47 44 44 45 45 44 47 50 51 55 53 51 46 43
65 70 73 68 85 90 50 53 64 73 78 83 74 81 82 70 75 56 55 66 75 72 68 61 52 55 56 53 51 49 53 49 47 48 46 45 50 52 56 56 55 50 47 43
67 66 73 78 90 65 36 57 77 86 83 66 72 70 75 80 74 54 56 70 74 75 63 58 51 50 54 58 56 53 52 50 51 49 44 48 55 58 58 58 56 51 47 44
72 88 78 85 95 70 60 65 80 80 77 71 67 65 69 64 61 48 60 68 74 72 61 54 55 57 56 59 59 56 54 55 53 47 48 57 59 59 59 60 55 51 47 41
78 82 85 91 86 72 57 77 72 81 73 63 57 57 62 57 49 42 47 66 74 83 72 67 63 63 63 62 60 59 59 58 52 52 62 63 62 61 61 58 54 51 46 40
70 82 92 96 58 79 67 70 75 78 70 61 57 51 52 56 51 41 41 60 77 86 83 75 71 70 68 64 64 63 58 56 59 68 66 64 64 63 61 57 55 51 46 40
72 84 84 76 72 69 62 68 65 57 58 55 52 50 50 52 46 45 43 57 82 92 94 86 83 74 69 69 67 64 64 64 70 69 68 67 65 62 60 59 55 50 44 41
83 86 96 84 77 80 58 57 54 51 51 54 57 50 49 53 53 54 48 59 78 95 97 92 87 82 73 71 75 72 72 72 72 72 71 69 67 66 63 60 55 49 48 40

GFSCGP_prec_cthk_012.txt.gz
RH
12 13 13 13 12 12 11 14 14 11 9 12 14 13 10 8 10 9 9 9 8 8 7 9 9 11 11 11 12 13 14 13 13 12 11 10 10 11 11 13 16 18 19 19
15 15 9 10 12 14 16 17 17 13 10 13 13 12 9 9 9 9 8 8 7 7 7 8 9 10 11 12 12 13 14 14 13 12 12 12 12 12 13 15 17 19 20 20
15 9 11 13 15 17 17 19 16 16 12 12 15 12 10 9 8 9 9 8 7 7 7 7 9 9 12 13 12 13 14 14 13 13 13 13 13 14 15 17 19 20 21 21
19 14 13 15 16 14 18 13 15 17 20 23 18 19 13 11 10 10 10 9 8 8 8 8 9 10 11 12 14 14 15 15 15 15 15 14 14 15 18 20 20 21 22 23
21 20 22 24 22 22 23 21 22 24 26 26 24 28 11 13 12 11 9 8 8 8 8 8 9 9 11 14 14 15 16 16 16 16 16 16 17 19 20 21 21 22 23 25
20 19 20 21 21 23 24 26 29 34 35 39 23 31 13 12 13 11 10 9 8 8 9 9 9 10 10 12 13 13 16 17 16 16 17 20 21 21 21 22 22 23 26 28
20 19 19 19 21 21 24 29 40 40 48 36 26 34 14 13 15 14 14 13 11 10 10 10 10 10 10 12 14 15 17 16 16 19 20 21 22 22 22 22 22 25 28 30
27 25 19 22 24 24 28 31 41 47 44 35 34 35 19 18 18 18 18 18 16 14 13 13 14 14 14 14 15 16 17 18 19 21 22 23 23 22 23 23 24 27 31 32
41 33 29 29 32 32 33 37 36 47 37 50 33 29 23 22 22 22 21 20 20 20 19 18 15 17 18 18 17 19 19 20 21 22 23 23 23 24 24 23 25 30 33 32
50 52 36 34 36 36 40 43 53 59 67 59 43 42 34 28 29 29 30 31 30 26 25 23 21 20 22 22 22 23 22 22 22 23 23 24 25 26 26 26 29 32 34 33
46 52 38 41 43 52 53 55 55 60 61 83 87 57 39 47 44 41 37 36 38 34 32 30 26 23 23 24 25 25 23 24 23 24 26 27 28 30 29 28 30 33 35 36
41 47 41 35 30 26 34 42 61 87 85 92 96 74 44 51 51 49 45 43 37 42 40 38 35 29 24 26 25 25 26 25 25 26 28 29 32 32 31 29 31 34 37 38
31 51 50 30 25 35 44 43 59 78 96 94 97 87 48 45 47 48 49 48 44 42 41 45 40 37 34 29 31 30 30 29 29 32 32 32 34 34 33 32 34 38 39 39
28 38 44 52 48 43 44 36 29 30 49 54 64 71 54 44 45 51 58 59 54 52 55 52 50 47 42 37 34 35 38 38 34 36 33 34 37 37 35 35 37 41 41 41
40 47 42 38 41 38 36 39 39 40 42 54 38 35 32 33 42 59 70 73 64 62 63 62 53 53 50 45 40 42 43 40 35 34 36 39 42 41 38 38 41 43 42 44
41 50 48 52 44 41 56 41 39 60 65 65 60 52 57 56 62 71 73 67 62 63 64 69 65 60 57 54 48 44 44 42 42 37 37 42 47 44 41 40 40 43 44 46
45 51 64 66 55 69 67 45 54 67 71 75 88 96 88 83 70 67 67 71 65 65 68 66 68 70 60 57 56 50 47 46 46 40 38 46 48 47 45 42 40 43 46 48
53 58 78 80 82 89 44 34 47 69 73 66 86 86 84 83 81 79 73 67 63 66 73 75 71 71 66 56 57 56 50 47 45 39 40 45 49 49 48 44 43 46 48 51
56 74 90 95 89 73 48 45 53 61 54 74 91 78 74 77 66 59 79 74 71 63 68 75 71 70 68 62 59 61 54 46 44 42 41 44 52 51 50 48 46 47 52 54
67 76 87 80 91 89 37 48 62 78 74 78 78 74 73 71 68 49 62 67 62 64 59 63 71 69 65 61 63 64 61 56 50 49 49 47 48 52 54 51 47 50 55 57
67 72 83 81 87 64 53 66 80 90 83 63 75 71 68 69 64 52 50 49 56 54 58 66 73 66 63 58 63 66 65 61 59 57 53 51 51 53 54 50 48 55 58 58
76 86 76 81 92 70 62 75 86 89 69 81 72 71 67 59 56 53 47 52 53 51 42 66 82 75 56 54 61 63 64 67 62 59 57 55 56 56 53 49 53 59 61 59
79 82 77 88 71 58 67 81 80 88 84 75 70 61 67 55 50 49 51 54 55 51 48 67 85 82 66 52 55 60 65 62 59 60 58 58 60 57 52 52 61 63 62 58
72 80 84 91 54 75 71 75 84 86 82 73 57 54 58 56 50 50 48 53 56 55 55 63 89 89 74 57 60 63 65 66 62 56 58 61 62 57 54 62 66 64 61 57
76 90 89 84 71 63 74 76 79 72 77 73 66 67 63 66 57 54 52 49 50 49 59 77 92 97 93 73 69 69 69 67 65 59 60 60 57 58 63 70 66 63 62 59
85 87 95 87 83 90 71 70 69 68 63 66 67 60 65 75 65 58 51 45 42 43 53 85 94 98 93 82 78 76 72 68 66 62 61 58 62 64 71 66 68 65 66 61

GFSCGP_prec_cthk_015.txt.gz
RH
11 11 11 10 12 12 12 13 14 10 9 11 11 10 9 6 8 8 6 5 5 6 5 6 8 9 11 11 12 12 13 13 15 15 15 15 13 12 11 10 10 11 12 14
13 13 8 10 12 13 14 15 14 12 10 13 12 10 9 8 6 6 7 6 5 5 5 5 6 8 10 10 11 12 13 15 15 15 15 15 14 13 12 12 12 12 14 16
14 12 14 13 15 16 17 17 15 15 13 13 15 11 10 8 8 8 8 7 7 7 7 7 7 8 9 10 11 12 13 14 15 16 17 17 17 15 13 12 13 14 16 18
22 20 20 22 23 23 25 21 22 22 25 22 20 17 12 11 10 11 11 10 8 8 9 9 9 8 9 9 10 12 13 15 16 17 17 17 16 15 13 14 15 16 18 20
18 18 20 22 21 22 23 23 24 26 27 28 25 27 9 11 12 12 12 12 11 11 11 10 10 10 10 10 11 12 13 15 17 18 19 18 18 17 16 17 17 18 21 22
19 19 19 18 18 20 21 24 26 30 30 32 22 26 12 12 13 14 13 13 13 15 15 16 14 14 13 13 12 12 13 14 15 17 19 19 18 18 19 18 20 22 23 23
21 19 19 19 20 22 24 29 32 30 37 31 26 28 15 14 14 17 18 19 21 21 21 21 19 18 16 15 15 14 14 14 15 17 18 20 19 19 20 23 24 24 24 24
30 27 21 25 30 32 30 32 36 40 33 29 27 29 18 17 19 21 24 27 28 28 25 23 25 23 21 18 16 17 17 16 17 18 19 19 20 22 24 24 25 25 25 25
46 38 28 25 31 32 34 38 40 46 39 47 32 29 24 22 25 26 26 26 30 32 30 29 28 28 28 23 20 21 20 19 18 18 20 22 23 25 25 26 27 26 27 26
46 42 30 36 35 36 40 38 41 47 56 51 39 37 37 33 39 37 35 33 31 32 35 37 35 34 33 30 24 24 23 23 23 22 22 23 25 26 27 28 28 28 28 27
33 44 32 27 24 29 25 26 27 39 42 63 65 55 52 50 51 46 41 43 36 37 38 40 41 39 39 38 31 29 27 27 27 27 26 26 26 28 29 30 31 31 29 30
32 37 35 27 18 21 34 58 60 71 60 66 83 72 38 46 42 45 48 48 47 49 47 51 52 49 46 44 42 36 33 31 30 29 28 28 29 30 30 32 32 31 29 31
26 35 36 19 23 33 32 31 31 34 39 41 47 34 14 14 32 52 56 50 50 53 56 55 57 58 54 49 49 46 40 36 35 33 32 31 31 31 32 33 33 32 31 32
27 39 38 37 34 42 44 38 44 46 62 62 62 59 45 52 41 45 55 60 54 58 59 57 55 56 53 53 54 55 52 42 39 39 35 33 31 36 37 36 35 34 34 36
38 49 39 39 41 42 43 51 40 47 52 72 64 75 66 75 89 71 65 69 64 57 60 62 55 69 68 64 64 62 61 55 45 41 41 35 36 39 40 38 38 36 37 39
48 51 49 52 45 44 56 43 49 57 55 57 66 82 82 78 72 77 80 80 72 63 56 56 59 58 68 69 68 69 68 62 56 45 44 41 41 41 39 40 42 39 41 43
51 55 59 63 50 58 61 45 45 46 52 53 71 63 77 74 65 66 71 71 73 80 69 52 49 55 64 62 75 74 71 64 63 57 48 45 45 41 41 41 43 43 44 45
48 53 61 65 65 74 52 35 47 58 47 55 65 79 82 87 60 63 70 71 70 69 68 66 51 45 54 65 70 79 75 68 67 64 57 51 47 44 44 46 45 47 46 46
44 58 73 78 71 63 47 43 56 60 46 66 78 76 68 67 64 46 61 66 67 61 59 57 65 57 58 67 71 76 72 72 70 67 62 56 51 47 47 49 49 50 50 48
47 59 75 73 89 85 35 50 63 70 56 61 71 70 72 70 75 42 54 56 57 59 60 62 57 53 62 70 73 74 73 73 69 71 65 58 57 49 48 48 51 53 52 49
51 58 71 72 90 67 48 62 65 78 62 56 69 75 77 75 68 47 58 55 53 55 54 53 57 53 58 62 71 67 68 71 70 72 64 58 54 48 49 50 53 55 54 52
61 76 75 82 90 72 59 68 83 82 63 73 67 74 79 68 57 53 52 58 55 51 48 43 48 53 61 63 69 67 66 70 71 74 63 54 55 57 57 56 56 59 57 54
59 66 78 89 79 67 67 78 77 86 83 68 71 66 77 72 65 60 55 51 54 53 48 41 43 55 55 65 70 67 62 65 75 76 67 67 63 64 62 59 60 62 61 55
53 70 89 95 53 81 74 75 87 84 80 70 63 67 67 71 59 58 57 54 52 51 47 41 43 52 54 62 73 69 61 62 72 81 77 72 67 67 64 63 65 64 59 55
53 77 86 78 74 75 84 93 95 81 75 70 64 67 66 67 60 65 65 66 64 57 50 43 44 54 55 79 86 71 67 68 76 81 78 81 77 69 67 68 67 65 60 56
57 69 83 81 93 98 86 88 88 82 68 69 64 49 51 62 55 53 51 53 56 58 54 48 47 54 63 91 96 79 71 74 75 80 77 75 74 72 66 65 64 62 62 61

GFSCGP_prec_cthk_021.txt.gz
RH
11 10 10 10 10 9 9 10 9 9 11 12 12 13 12 11 11 12 13 13 12 12 12 11 11 10 10 12 12 15 18 23 27 23 21 18 15 15 13 12 11 10 8 8
13 16 16 14 16 16 16 17 16 15 14 14 13 12 10 10 11 11 12 12 12 13 14 16 16 16 16 16 17 16 17 20 28 28 23 20 19 17 15 15 13 13 12 11
19 19 19 17 16 17 15 16 17 15 14 13 15 13 12 11 13 14 14 16 16 17 18 18 17 17 18 19 19 20 19 22 24 32 29 28 26 23 20 17 15 14 15 14
18 17 16 16 17 17 16 18 17 17 18 17 14 17 14 15 17 18 20 20 18 17 18 19 20 19 19 20 21 20 19 21 23 26 31 31 26 24 20 18 17 17 18 17
15 16 17 18 16 18 18 18 18 19 19 22 19 21 17 18 21 22 22 20 19 18 18 19 20 22 22 22 22 22 21 21 21 24 27 30 28 28 27 24 21 20 20 20
17 17 18 19 19 20 20 21 21 20 25 29 20 21 18 24 24 26 28 26 26 22 21 23 23 22 22 23 24 23 23 22 23 24 26 29 28 28 29 26 25 24 23 22
19 22 21 24 23 26 26 21 19 19 34 28 21 20 19 23 25 27 26 26 26 24 25 26 26 25 26 28 27 26 25 25 25 26 27 28 29 29 30 29 28 26 26 25
30 26 26 25 25 28 25 27 25 26 19 18 21 20 16 27 30 29 26 23 21 27 33 33 32 33 31 30 29 31 29 28 29 30 30 30 33 33 31 32 31 27 27 28
26 26 25 19 26 24 25 25 33 38 29 29 21 19 17 23 25 28 25 25 26 31 35 39 41 39 39 41 39 38 34 33 32 30 32 34 36 37 36 33 36 31 29 31
27 22 18 25 21 24 27 22 21 24 25 19 12 14 16 22 23 20 21 21 22 26 25 24 30 35 38 45 55 55 56 53 47 41 37 40 39 40 41 38 37 35 32 33
23 21 21 26 19 20 19 20 24 28 32 31 31 22 20 22 25 26 26 26 32 53 36 34 35 38 40 43 52 61 70 68 70 61 51 49 47 45 45 43 41 39 36 35
24 21 19 20 19 19 19 22 34 38 34 35 41 28 23 25 29 31 36 40 51 48 47 45 48 49 50 60 54 56 64 73 73 71 66 64 62 55 51 49 44 44 41 39
25 25 25 20 30 34 34 36 36 40 41 41 51 38 34 33 30 28 36 45 55 50 43 46 51 59 60 58 56 57 56 65 74 74 72 70 69 63 55 53 48 47 44 42
27 27 25 28 26 27 31 32 32 33 44 41 44 42 39 39 38 38 35 44 58 59 55 50 49 59 61 58 61 71 65 55 57 75 79 78 74 73 62 60 54 51 47 44
29 31 27 30 28 28 30 34 33 36 37 45 41 46 44 39 49 38 46 51 53 55 50 51 52 49 55 59 69 73 81 70 60 66 83 86 83 77 72 66 59 55 50 48
34 37 36 37 34 36 37 36 37 37 42 40 34 32 41 44 43 44 50 55 56 58 59 53 46 46 51 58 67 75 81 78 80 73 84 91 90 87 80 71 64 59 54 51
37 40 45 46 37 38 43 39 33 33 35 45 40 39 42 48 51 44 57 60 57 62 66 56 58 50 50 53 60 64 70 78 80 80 85 95 91 91 91 83 69 62 56 53
34 38 48 54 49 52 39 33 36 39 38 47 46 50 56 65 62 45 64 71 71 61 60 58 60 50 48 52 53 59 62 65 73 79 84 90 93 91 93 90 77 68 60 55
38 42 52 58 55 43 40 38 40 44 44 38 58 71 70 71 72 45 73 71 70 66 58 60 55 51 47 48 50 48 50 54 65 81 69 83 87 82 92 92 88 75 67 58
36 42 56 59 71 64 37 39 45 48 53 71 83 83 83 77 83 67 67 63 58 60 59 57 55 54 47 47 50 48 46 50 56 68 54 69 83 81 83 92 93 84 75 61
39 42 54 61 67 56 40 45 48 72 70 67 64 78 86 94 94 87 78 69 58 52 49 48 49 53 54 50 49 46 46 51 54 54 57 63 68 72 76 91 95 88 77 68
47 52 53 50 56 50 40 45 54 53 57 74 80 87 90 85 82 80 74 65 61 53 48 49 50 43 43 47 47 44 41 50 50 47 56 61 57 64 69 87 93 89 78 68
45 40 46 48 44 39 39 45 48 62 79 78 85 76 81 85 80 74 70 66 67 63 52 49 52 44 37 41 48 45 43 47 48 46 60 56 55 63 68 83 93 92 73 69
32 37 43 45 31 43 41 51 61 75 74 72 73 78 83 89 92 86 80 71 68 60 58 49 50 46 40 39 41 52 49 49 47 54 65 56 60 72 75 80 86 93 76 70
34 40 41 41 40 47 46 55 62 65 72 75 80 86 87 89 93 95 85 71 69 64 60 59 55 50 42 40 41 49 53 52 55 72 74 61 70 79 79 85 92 94 81 73
39 45 46 44 39 49 47 54 62 68 78 84 92 90 87 86 86 80 71 66 65 62 58 55 56 56 43 42 43 49 56 61 72 85 81 75 84 88 86 95 96 95 85 76

GFSCGP_prec_cthk_024.txt.gz
RH
12 11 12 12 12 13 13 13 14 14 15 16 16 14 10 10 12 13 15 16 17 17 17 15 15 14 14 15 16 17 19 22 30 37 33 32 31 24 22 20 18 15 12 10
14 18 17 18 16 16 16 17 16 14 14 15 13 13 14 12 16 17 17 17 18 17 16 16 16 16 15 15 16 18 19 21 23 34 38 35 33 30 27 24 22 19 15 13
19 19 18 17 16 16 16 16 18 18 16 13 17 15 16 18 18 19 19 18 18 17 17 17 17 18 18 18 19 20 21 22 22 24 32 35 36 36 30 26 22 22 20 17
16 16 16 17 17 16 18 17 18 18 19 21 16 25 18 22 23 23 23 24 22 20 19 19 19 19 20 20 20 20 19 20 22 26 28 39 38 33 33 30 26 25 24 21
15 17 18 18 17 18 19 18 19 20 22 25 23 31 25 26 29 29 29 28 24 23 23 24 23 23 22 22 22 22 22 22 22 20 27 31 34 43 34 32 30 30 28 27
18 19 19 21 20 22 22 24 19 17 22 33 28 31 30 31 32 29 27 24 21 21 23 25 25 26 25 25 26 24 25 25 26 24 23 24 31 35 45 38 35 32 31 30
21 22 24 25 23 25 27 24 26 26 38 37 25 29 31 30 29 26 24 22 22 22 23 24 25 26 26 27 28 29 31 32 31 31 30 28 27 34 38 41 39 36 33 31
27 27 25 24 23 25 21 26 31 33 28 32 23 26 29 27 25 25 26 26 26 25 26 29 28 26 26 27 29 36 37 35 36 37 38 37 31 31 38 41 42 41 36 34
24 26 24 22 23 22 25 26 26 34 32 33 25 19 30 24 26 27 27 27 27 26 29 31 30 27 25 30 29 29 30 34 36 39 44 44 40 36 37 42 44 44 43 39
23 22 15 20 21 21 24 25 25 25 29 27 17 17 18 21 22 24 25 25 23 22 22 21 18 15 18 24 31 42 49 37 29 32 49 46 52 51 46 45 47 47 47 47
19 19 18 17 16 18 18 20 21 22 25 30 36 26 22 24 25 24 22 22 24 30 35 31 25 25 25 28 37 44 45 46 41 40 40 52 57 65 60 53 53 54 52 47
19 20 19 16 17 19 21 21 21 36 35 39 50 32 21 25 26 28 28 30 31 36 38 30 30 28 28 35 39 40 46 55 51 53 57 47 66 76 75 68 64 64 59 56
22 20 25 21 27 29 30 32 35 31 39 44 56 40 26 29 28 28 31 35 39 42 38 28 32 35 37 36 34 37 43 54 59 61 61 60 64 85 87 84 83 74 68 65
24 24 23 30 27 27 30 30 29 33 43 41 41 39 34 34 35 33 31 37 40 43 39 34 37 40 41 42 40 46 48 50 57 60 62 71 74 76 93 87 85 87 83 78
32 34 31 30 29 29 31 32 31 36 39 47 39 46 43 37 32 33 39 45 48 45 42 43 46 49 48 47 47 47 50 48 51 51 57 68 79 77 86 92 88 91 86 82
34 37 35 37 32 34 34 33 36 37 40 44 38 33 36 38 36 39 50 56 57 57 60 62 57 49 44 43 48 46 47 49 49 51 50 57 79 86 82 95 91 91 90 85
36 38 43 46 35 40 44 35 32 34 38 40 38 36 36 42 50 53 61 66 72 70 78 68 52 52 47 42 46 48 48 48 52 49 45 50 74 86 84 87 92 94 93 88
34 37 42 48 45 55 35 33 36 34 34 32 35 39 49 60 64 58 54 74 77 79 81 68 62 51 43 41 46 50 52 52 55 52 47 52 71 80 80 91 93 96 96 90
34 39 51 58 53 41 34 36 38 36 33 36 49 51 55 58 60 47 54 72 77 79 80 79 63 49 44 41 44 49 52 53 50 46 48 58 61 68 71 95 93 95 97 92
35 41 48 48 62 63 31 32 38 39 43 43 47 47 51 60 76 65 61 59 65 70 73 69 64 60 51 47 48 44 44 44 47 44 50 49 50 57 64 89 88 93 96 95
37 42 47 50 58 50 35 39 33 46 42 38 38 52 67 83 81 74 68 62 65 72 68 66 70 71 63 53 49 44 40 44 45 45 50 48 50 54 62 76 82 86 94 97
44 48 45 44 54 54 32 28 39 39 38 46 56 67 71 72 69 71 75 79 73 69 69 67 76 67 59 62 57 47 43 40 41 45 47 48 48 53 68 70 79 81 89 96
46 34 40 40 39 26 31 35 36 42 54 58 66 58 62 68 75 78 80 82 79 72 64 67 73 66 54 63 64 59 48 43 41 43 43 48 47 58 65 64 78 73 92 98
36 30 34 34 27 30 34 41 52 50 50 52 55 63 76 85 82 77 78 75 72 70 74 77 72 63 56 58 63 62 57 46 44 41 45 48 52 65 63 67 76 82 95 98
39 35 32 34 32 37 42 38 45 49 48 52 60 71 76 81 72 73 67 67 67 66 66 67 69 74 63 58 56 54 56 49 43 44 47 52 61 65 65 70 81 85 98 98
36 36 38 41 35 35 37 41 41 43 49 57 64 60 65 74 66 67 72 81 85 84 83 76 67 68 68 63 54 49 50 47 50 49 58 57 67 67 66 75 86 94 98 98

GFSCGP_prec_cthk_027.txt.gz
RH
12 12 14 13 13 15 16 15 16 15 14 16 15 14 11 14 16 17 17 16 17 18 18 18 17 16 16 16 17 18 19 21 25 35 45 44 45 36 34 30 27 27 26 23
16 19 18 18 18 17 16 17 17 15 16 16 15 15 19 17 18 18 18 19 19 20 19 19 18 18 17 17 18 18 20 22 23 25 34 40 44 45 46 38 33 29 28 29
19 18 17 16 17 17 16 18 19 20 18 15 17 19 22 21 21 22 21 21 20 19 19 18 18 19 19 19 20 20 21 22 23 23 25 28 38 42 43 51 42 36 33 30
16 16 17 18 18 18 19 18 19 20 23 23 21 32 25 26 26 25 22 22 22 21 21 20 20 20 21 20 20 22 22 22 23 24 24 25 26 35 44 43 44 43 38 34
16 17 17 19 20 20 21 21 23 23 26 28 30 35 32 31 27 25 24 23 23 24 24 24 25 24 23 22 21 21 23 25 25 24 24 24 27 28 29 38 45 46 42 37
19 19 20 21 22 23 23 23 19 20 27 33 28 33 37 36 27 27 27 26 26 26 28 28 28 28 28 27 26 26 25 27 29 29 28 30 28 29 29 30 35 37 42 40
21 23 23 22 23 24 23 22 30 28 36 38 28 30 34 28 28 28 28 28 26 26 28 27 27 27 28 30 29 28 27 29 28 30 29 25 31 32 34 33 31 34 39 43
25 25 24 20 23 23 24 25 33 36 37 36 23 27 30 26 28 28 28 28 27 26 28 27 27 26 26 25 24 22 25 26 22 19 20 20 23 24 36 38 38 35 37 42
28 25 21 21 19 17 21 22 22 28 30 34 30 24 23 24 26 27 27 30 29 28 28 29 30 28 28 23 22 24 26 24 21 17 20 22 21 24 27 34 39 44 40 41
19 19 14 18 17 17 18 20 26 27 29 32 26 24 29 27 29 30 31 31 30 28 26 25 24 22 18 15 15 17 22 25 27 27 24 28 30 29 28 27 30 46 47 44
16 18 17 15 16 18 19 23 24 25 27 33 36 30 22 25 26 26 24 20 22 24 24 23 26 28 27 25 27 31 31 29 26 27 33 34 37 39 35 36 37 48 60 60
19 21 23 17 18 20 23 23 23 35 32 39 49 34 25 26 25 24 26 27 29 32 38 38 39 38 35 32 31 32 32 31 28 32 36 33 38 45 48 46 43 46 76 77
21 22 29 21 28 28 29 27 31 34 41 46 54 32 24 24 24 23 29 34 36 37 35 40 41 40 36 38 40 41 40 35 32 29 32 36 37 46 51 50 55 60 63 71
25 28 25 29 26 28 31 30 31 34 52 38 38 36 28 28 30 31 33 35 36 38 39 44 45 45 42 47 52 46 40 35 32 29 33 38 39 44 47 53 67 82 72 76
32 36 33 32 31 31 31 32 34 39 39 47 32 35 35 34 33 35 39 38 39 39 42 46 49 54 51 55 52 50 44 37 35 35 35 42 44 42 44 47 74 94 83 87
34 36 35 36 32 34 35 34 33 35 36 37 37 33 32 32 35 39 38 37 45 52 51 49 52 57 59 63 59 52 47 40 38 37 42 44 47 46 45 52 80 88 85 87
34 38 43 48 37 37 42 32 30 32 33 34 35 31 34 33 33 37 38 45 51 56 62 66 65 62 63 62 60 58 49 42 39 39 42 43 44 44 49 66 85 76 73 87
35 39 45 50 45 50 28 28 29 31 32 30 30 32 37 43 42 42 40 49 56 65 67 67 63 60 62 66 65 66 59 51 45 39 38 36 39 43 56 57 58 62 68 84
35 41 49 55 59 41 33 29 31 31 29 31 35 37 38 37 38 36 46 55 61 66 66 67 70 74 74 67 70 70 62 60 52 44 35 37 39 41 48 49 49 61 71 86
40 42 49 55 60 61 32 28 28 30 34 30 34 36 40 46 58 44 51 52 49 57 69 71 75 81 81 71 71 72 66 66 56 48 42 39 35 39 44 47 48 61 69 85
44 48 52 54 66 49 33 31 29 40 32 28 32 41 46 58 59 59 60 58 65 71 71 74 75 76 72 77 73 73 70 65 64 56 48 44 37 39 41 46 49 62 73 86
47 50 53 54 63 57 31 30 34 32 29 35 41 49 53 47 48 55 59 65 67 69 67 65 69 65 68 71 79 84 66 63 66 63 54 49 41 38 40 46 52 65 75 89
52 44 46 44 40 31 29 31 30 34 36 41 49 48 52 53 56 60 62 64 66 69 72 76 82 81 79 81 72 72 74 68 59 58 56 49 41 37 39 50 56 69 80 94
45 46 46 43 33 29 28 29 34 36 39 44 43 42 50 56 58 59 65 69 73 75 80 85 88 90 90 90 91 72 65 70 62 53 48 42 37 38 43 53 60 69 80 94
52 48 42 41 35 29 33 35 35 38 37 37 41 45 51 55 56 67 73 75 78 84 88 95 95 97 97 97 93 76 72 73 67 56 50 45 42 42 49 53 60 71 85 95
55 48 47 41 32 35 35 36 38 37 34 39 41 41 49 59 67 75 78 88 92 87 88 91 91 98 97 96 88 74 68 69 62 53 48 44 44 52 54 54 61 73 92 97

GFSCGP_prec_cthk_030.txt.gz
RH
13 12 14 15 15 16 17 17 17 16 15 15 16 19 17 17 18 19 19 19 19 19 19 19 20 20 20 20 21 20 20 22 25 26 28 30 38 47 47 48 47 46 56 42
16 19 18 18 18 18 17 17 18 16 16 16 16 21 20 20 20 19 20 20 20 20 20 22 22 21 21 21 21 21 22 22 24 26 28 30 33 40 43 48 50 49 44 50
19 17 16 16 18 18 17 17 19 20 18 17 19 25 24 22 20 20 21 22 22 23 23 23 23 23 23 23 23 23 23 24 24 24 25 26 28 33 38 39 44 49 50 43
17 16 17 19 18 19 20 20 21 22 24 25 22 30 30 24 22 21 21 22 23 23 24 24 23 23 25 25 25 24 24 27 27 27 27 28 28 30 30 30 35 38 43 48
17 17 18 20 21 22 23 22 22 22 25 26 26 34 32 24 24 23 23 24 24 25 27 27 27 28 29 29 28 28 27 29 34 35 31 31 30 27 26 28 28 28 34 38
21 20 22 22 23 24 21 20 18 23 27 32 25 31 35 27 24 24 25 26 26 26 28 29 30 33 33 32 32 31 30 32 31 33 34 34 34 32 26 24 25 26 27 28
21 23 22 21 22 21 20 22 24 23 32 28 25 28 29 25 26 25 26 27 26 27 29 30 30 31 30 28 29 29 30 27 29 31 32 35 36 36 33 29 28 26 25 25
26 22 20 18 20 19 20 22 26 20 30 32 25 25 23 22 24 25 26 26 27 27 27 28 28 27 26 25 26 24 21 20 20 20 17 16 19 22 23 27 25 25 23 25
21 19 18 19 19 16 18 22 22 26 29 34 29 23 22 23 24 26 27 28 28 28 29 30 30 31 30 27 26 24 23 20 18 19 16 12 14 19 22 23 21 20 21 24
18 17 14 16 17 17 18 21 28 28 26 29 26 26 27 24 27 29 30 32 32 31 30 30 29 27 23 22 23 23 23 23 23 22 20 16 14 14 15 16 21 25 26 28
16 18 15 16 18 19 20 22 26 27 30 30 34 26 21 25 27 28 27 28 25 23 24 24 22 24 27 30 34 35 32 27 24 24 25 24 20 20 22 22 22 30 33 31
19 22 25 19 20 21 22 23 25 33 27 38 48 36 21 23 23 25 25 23 21 24 29 33 35 37 37 36 39 38 38 36 36 38 35 31 26 25 26 26 28 32 37 38
20 22 25 19 28 26 27 27 29 32 42 45 49 29 21 20 20 22 23 24 28 32 33 35 36 37 38 39 37 37 38 40 42 43 37 35 31 28 28 32 33 34 36 40
24 27 22 27 23 27 30 27 29 32 49 36 34 26 20 23 25 25 27 33 31 30 31 31 35 34 39 41 41 46 47 52 47 43 41 39 35 30 31 36 38 40 37 41
30 33 32 30 30 31 31 33 32 36 35 43 26 33 27 27 29 30 30 28 26 28 31 34 36 37 39 41 45 49 50 49 49 49 48 46 42 33 34 38 42 41 45 51
34 33 36 37 32 34 36 34 34 35 36 36 35 30 29 28 31 30 29 30 31 32 35 39 43 43 44 50 56 54 52 54 55 48 49 48 45 37 35 33 38 44 47 52
34 38 42 46 39 39 38 32 33 32 32 33 35 28 28 30 31 29 32 32 35 41 46 47 49 47 46 50 56 62 62 61 62 59 52 52 50 46 38 36 38 40 43 45
36 40 46 50 44 40 27 30 30 32 32 31 30 31 31 32 29 31 34 37 43 48 47 48 51 55 58 66 68 72 72 68 65 59 58 60 57 49 46 39 31 34 41 41
36 41 49 54 60 40 32 30 30 31 30 31 33 35 33 31 34 30 35 42 46 50 56 62 62 65 65 70 72 69 65 65 66 61 63 65 63 57 50 43 34 35 39 39
41 43 48 59 59 58 32 34 34 35 37 31 33 33 37 38 46 34 34 35 41 46 54 63 65 69 73 75 81 80 76 77 74 66 69 69 66 67 56 49 38 36 35 38
49 52 54 61 66 50 39 38 38 44 38 33 34 37 38 41 41 39 41 40 43 48 53 59 64 68 72 77 85 83 85 87 83 82 74 70 65 67 60 48 41 35 32 42
46 52 58 63 71 62 40 39 42 37 35 34 34 37 35 34 32 37 40 44 49 56 60 65 71 69 78 91 95 93 90 92 94 89 73 69 64 59 56 47 37 32 35 50
49 41 51 53 51 44 42 39 39 37 36 35 35 36 37 34 34 39 42 45 54 67 73 78 80 75 76 88 96 94 96 97 97 94 77 59 64 57 50 44 37 35 41 61
46 46 51 49 43 47 43 42 41 38 36 37 41 39 35 35 40 43 48 57 67 71 74 74 76 83 88 92 92 98 97 96 95 88 72 66 61 55 49 43 40 39 50 65
48 49 57 51 48 45 41 41 39 38 39 43 40 37 35 39 44 50 56 67 72 73 70 73 83 97 96 93 91 89 86 84 79 72 67 67 61 52 45 40 37 47 65 69
49 54 62 53 47 43 42 41 42 40 45 47 34 31 37 43 46 51 65 73 76 75 74 72 78 85 81 73 70 70 69 67 64 61 62 60 55 47 43 39 43 63 64 77

GFSCGP_prec_cthk_036.txt.gz
RH
13 14 14 13 14 17 18 19 18 17 17 19 19 19 18 18 18 19 19 19 19 19 19 19 19 19 19 19 19 20 20 21 22 23 23 24 25 29 33 37 41 44 47 51
15 15 14 17 20 19 18 18 18 18 20 21 21 20 19 18 19 19 19 19 19 19 19 19 19 19 20 20 21 21 22 22 22 22 23 22 23 24 25 28 33 39 45 47
16 17 20 18 19 19 18 19 20 22 23 23 23 23 19 17 18 18 18 19 20 20 20 20 20 20 21 21 22 22 23 23 24 24 25 25 25 25 24 23 24 27 33 39
20 19 18 19 19 20 21 21 23 23 25 24 23 26 23 17 17 17 18 19 20 20 21 21 22 22 22 23 23 24 24 24 25 25 27 28 29 30 31 31 31 30 28 26
17 18 20 20 20 23 24 22 21 21 23 24 26 33 26 20 19 19 20 20 20 20 20 21 21 21 22 20 19 19 20 21 21 22 20 21 23 24 26 29 33 36 35 33
20 21 20 21 22 23 20 18 19 25 27 27 24 30 28 23 21 21 21 20 21 21 20 20 20 20 20 20 20 20 20 20 19 18 18 17 17 16 16 17 20 25 27 31
20 22 20 21 20 18 18 16 16 16 26 25 28 30 25 22 21 21 21 22 22 21 21 20 20 22 22 22 21 20 20 19 20 19 18 18 17 17 15 16 16 16 16 16
20 20 20 19 18 19 20 20 22 16 19 24 27 27 22 20 20 21 21 21 21 21 21 21 22 23 23 22 21 22 22 22 22 23 24 23 22 20 17 19 19 18 16 15
16 13 16 17 18 17 19 22 24 25 29 30 25 23 20 20 21 21 21 21 22 22 22 23 23 23 22 21 20 19 19 21 22 23 23 23 24 24 22 22 21 20 20 18
16 12 15 16 18 18 20 21 24 27 23 24 22 23 22 22 21 22 22 23 23 23 23 23 22 21 20 20 19 19 19 20 20 23 24 25 27 27 27 27 25 23 24 22
17 15 14 16 19 20 19 22 25 27 29 28 31 23 19 20 21 23 23 24 25 23 24 23 23 21 18 18 18 19 20 22 22 24 26 30 30 34 36 33 29 28 26 24
18 19 18 15 17 20 20 20 23 32 25 35 43 33 22 22 22 23 24 25 25 25 25 24 22 19 19 21 21 22 23 26 30 30 37 38 35 36 39 39 38 36 33 31
19 19 21 17 22 24 24 25 28 33 38 42 42 27 24 25 24 24 25 27 26 26 25 24 21 21 24 25 26 25 26 30 31 36 41 39 45 46 46 47 47 46 42 39
22 22 21 28 22 26 28 28 30 32 48 38 35 24 25 26 25 25 27 27 28 27 25 25 24 26 27 26 26 26 28 34 41 45 47 53 61 62 66 64 62 62 54 46
25 28 29 29 28 27 28 28 33 36 36 35 24 29 26 25 28 29 30 31 30 29 29 28 29 28 25 25 27 32 38 42 45 47 51 59 63 68 73 78 77 77 70 58
31 30 36 33 34 35 37 35 36 35 36 38 36 36 30 31 32 34 34 32 32 30 28 27 26 25 26 29 33 38 42 44 47 49 53 58 64 70 77 82 81 80 73 69
33 37 41 37 39 36 31 30 36 37 37 37 40 33 34 35 37 37 35 36 33 29 30 28 26 27 29 35 42 44 48 48 50 57 66 75 81 74 76 83 90 82 77 74
38 41 47 50 42 37 30 34 36 36 37 39 39 40 39 39 38 39 39 36 34 32 30 29 28 29 35 41 45 52 58 63 61 64 68 71 83 86 83 89 93 90 86 82
40 44 51 53 57 39 33 39 39 42 37 41 42 42 41 40 39 41 40 38 35 33 32 30 31 38 43 49 56 62 64 73 78 68 68 66 75 90 91 86 92 92 91 89
51 53 53 63 59 54 38 45 44 43 44 40 43 43 43 45 51 41 40 37 33 33 32 30 37 46 53 59 68 73 76 83 84 77 70 63 71 79 93 96 96 97 95 91
65 65 65 70 73 56 48 50 49 53 45 42 44 46 47 52 49 42 38 33 33 33 28 31 40 53 60 66 70 73 79 87 92 91 80 66 65 71 82 91 96 97 96 87
61 66 70 71 78 67 52 57 57 49 47 49 51 50 51 50 44 40 37 36 36 31 27 34 46 55 61 71 75 79 85 90 92 98 93 72 62 66 74 85 93 92 88 68
49 49 60 61 54 56 58 60 56 53 53 54 53 53 50 45 40 39 38 39 36 33 35 43 54 58 68 76 81 83 87 90 95 97 98 83 61 63 68 74 82 82 64 54
46 53 59 56 44 57 59 58 58 55 55 55 54 51 46 42 40 40 40 37 35 34 40 49 59 66 71 77 84 90 91 94 96 97 97 93 60 57 64 65 63 57 53 49
46 52 56 50 50 49 49 52 54 58 56 54 51 48 44 43 41 42 40 38 36 38 45 54 64 69 75 79 87 91 95 95 94 97 98 97 68 54 59 60 56 55 50 45
49 45 51 52 53 52 49 52 54 54 52 51 48 47 47 44 43 41 39 39 38 42 47 56 67 71 75 80 90 95 97 97 95 97 98 98 91 58 54 53 50 48 44 44

GFSCGP_prec_cthk_039.txt.gz
RH
12 13 13 14 14 14 16 19 19 18 18 17 18 19 19 19 19 20 19 19 19 18 18 18 18 18 18 18 19 19 20 21 21 21 21 21 21 20 19 21 26 31 36 41
14 15 15 15 16 19 20 19 18 18 20 20 21 20 19 19 18 18 18 18 18 19 19 19 19 19 19 20 20 20 21 21 22 22 22 23 24 24 24 23 21 21 23 29
17 16 16 18 21 19 18 18 20 21 23 22 21 20 19 18 18 18 17 18 19 20 20 20 20 20 20 20 20 20 19 17 17 16 16 16 17 18 20 22 24 23 22 23
17 17 20 20 19 19 20 21 23 23 24 23 21 15 21 17 18 18 18 18 18 19 19 19 19 19 19 18 17 17 17 17 16 15 15 14 14 14 14 14 14 15 16 19
19 20 20 20 20 21 23 22 21 22 23 24 26 27 22 20 18 18 17 18 18 18 18 18 18 18 18 18 18 17 17 16 16 16 16 16 17 17 16 16 15 14 13 13
20 20 19 21 22 22 21 19 20 25 26 24 24 28 19 20 18 18 18 19 19 18 18 18 18 18 18 18 18 18 17 16 16 16 17 18 19 19 19 19 18 17 17 16
21 23 21 21 21 19 18 15 15 16 19 20 28 31 21 20 19 18 19 20 19 19 19 19 19 19 20 20 19 18 18 17 15 16 17 18 21 22 23 22 21 20 19 19
20 22 22 20 19 18 20 18 17 16 15 17 24 22 18 19 19 19 19 20 20 20 21 21 21 21 20 20 19 18 16 16 16 16 16 18 20 22 23 24 25 24 24 23
17 13 16 17 18 18 20 20 23 23 26 22 19 19 18 19 20 20 21 22 21 22 22 23 23 22 21 20 18 16 16 16 17 18 18 20 20 22 23 25 27 28 28 28
16 11 15 16 17 19 19 20 20 22 18 19 18 19 18 21 20 21 22 23 23 24 25 25 25 23 22 20 18 17 18 18 18 18 19 20 23 24 25 28 30 29 31 34
16 14 14 16 19 20 21 23 24 23 24 23 24 19 19 20 20 21 23 24 25 27 28 28 27 25 23 21 21 20 20 21 20 21 21 24 24 28 32 34 35 37 38 43
18 17 16 15 18 20 20 20 23 24 24 30 34 28 21 22 22 23 26 27 29 32 31 31 29 26 25 23 22 23 22 22 23 25 28 29 30 33 35 35 40 47 48 52
19 19 20 18 22 25 25 25 26 29 32 36 31 23 23 25 26 27 29 30 32 33 34 32 30 27 26 25 25 23 23 25 28 31 34 34 35 38 38 40 45 48 57 65
22 22 21 26 22 25 27 29 30 29 37 32 29 22 25 29 29 31 33 34 36 37 35 33 31 29 27 25 25 26 27 32 34 35 38 40 45 47 48 51 52 55 61 71
24 24 26 27 26 26 26 26 32 33 32 31 25 28 30 30 33 35 37 38 38 36 34 33 31 28 27 27 29 31 34 37 40 44 50 54 54 58 58 55 55 59 67 73
29 27 33 29 32 34 35 32 35 34 35 36 36 35 34 36 38 41 43 41 38 37 36 33 30 30 30 32 33 35 40 43 48 53 58 63 68 70 69 65 58 58 74 73
32 35 36 33 35 34 31 32 33 39 41 40 41 38 40 41 44 46 44 41 39 38 35 31 31 32 33 36 39 40 44 46 51 57 65 71 77 76 77 71 63 61 74 84
40 41 43 45 39 39 32 35 38 42 42 43 42 43 44 46 48 48 44 41 40 39 33 31 32 34 34 39 43 47 51 55 61 64 70 77 81 84 85 76 68 62 73 88
46 48 50 52 53 41 37 43 46 46 40 44 43 44 48 49 49 46 43 44 44 37 32 32 35 37 40 43 47 52 55 60 66 70 75 81 89 91 89 78 71 65 73 86
54 55 53 64 62 56 38 40 43 43 42 40 44 47 48 53 50 46 46 46 39 34 34 37 41 42 43 46 52 55 60 66 71 76 82 86 93 94 91 77 70 64 73 86
49 51 52 51 57 42 36 40 45 48 43 42 47 49 51 55 53 49 48 42 35 36 37 41 43 44 48 51 56 60 64 69 74 82 87 88 95 97 95 75 62 66 77 90
42 49 50 50 58 49 38 48 54 48 45 48 49 50 53 53 52 49 44 37 36 37 38 41 43 44 47 53 59 63 67 73 82 89 89 89 97 99 90 62 61 65 76 89
39 35 40 42 39 38 45 51 49 48 46 48 51 53 53 51 50 46 39 40 40 39 40 41 43 43 47 54 64 66 71 81 89 92 89 93 99 98 76 55 61 62 66 70
33 34 35 34 30 43 45 48 49 49 48 51 55 54 51 51 47 42 41 41 41 41 43 44 44 45 47 56 64 72 80 90 94 91 94 98 98 98 71 62 62 61 56 53
34 36 35 32 35 51 46 52 53 51 53 57 58 58 56 51 47 44 42 43 43 44 43 44 46 47 53 61 69 78 88 93 90 94 97 99 98 90 65 62 61 57 53 50
33 34 36 29 43 50 44 53 58 56 56 62 65 62 58 52 49 46 45 44 44 43 43 44 47 52 56 64 71 85 91 92 85 88 94 98 93 78 63 56 54 50 51 52

GFSCGP_prec_cthk_042.txt.gz
RH
12 11 12 12 12 13 14 14 16 17 16 16 16 17 18 19 19 19 19 18 18 18 18 18 18 18 18 18 19 19 20 20 20 20 20 19 19 19 18 18 16 18 19 22
12 12 13 14 15 15 16 17 16 16 17 18 19 18 19 18 18 18 18 18 18 18 19 19 19 20 20 20 20 19 17 16 16 16 15 14 13 12 12 13 13 14 16 18
14 16 16 16 16 17 18 16 16 18 21 20 18 17 17 18 18 18 18 18 19 20 20 20 20 21 20 19 18 17 17 17 17 16 15 16 16 15 15 15 13 12 11 12
17 17 17 18 18 18 18 18 21 22 21 19 17 11 19 17 19 18 18 18 18 19 19 19 19 19 20 19 18 18 17 17 17 18 18 17 17 17 18 19 18 18 17 16
18 18 19 19 19 20 22 22 22 20 19 19 21 19 16 18 17 17 17 17 18 19 19 19 18 18 18 19 18 18 19 18 18 18 18 18 19 19 18 19 20 20 20 20
20 20 19 20 21 21 22 20 19 19 20 21 18 20 14 17 16 16 17 17 18 19 19 19 19 19 18 19 20 20 19 19 19 19 19 19 19 19 19 20 20 20 21 22
21 21 20 21 21 22 19 15 15 19 23 18 22 23 15 18 17 16 16 17 18 19 20 20 20 19 20 21 20 20 21 22 20 19 20 20 21 21 21 20 21 24 27 28
19 23 22 21 21 17 17 17 15 17 15 15 24 20 16 16 17 17 17 18 19 20 21 21 21 21 23 24 24 25 24 23 22 22 22 22 22 21 21 22 23 25 28 30
17 17 19 19 18 17 19 18 21 18 19 18 14 15 15 16 17 17 18 19 20 21 22 23 24 27 28 28 28 27 26 24 23 23 23 23 22 22 24 26 26 26 27 30
16 13 15 16 17 18 19 20 20 20 19 18 15 16 14 17 17 18 19 20 22 24 25 26 29 32 32 31 31 29 26 24 25 25 25 23 24 27 28 29 28 30 31 31
16 13 14 16 18 19 21 20 21 21 20 19 19 17 15 17 18 19 20 22 24 27 29 31 34 35 35 33 31 28 27 27 27 27 27 28 30 31 32 34 35 40 40 38
18 16 15 15 17 20 20 19 20 21 23 23 27 22 18 20 21 22 23 26 28 31 33 36 37 37 36 34 29 27 27 28 30 30 31 32 35 35 37 41 47 49 52 50
19 18 19 20 23 23 22 23 22 25 26 27 25 21 23 24 25 26 28 29 33 37 40 41 41 39 37 31 28 29 31 31 32 33 35 36 37 39 41 45 52 58 62 63
22 22 21 22 24 22 23 25 25 23 30 25 25 23 25 29 29 31 33 36 39 43 46 46 43 40 34 29 30 31 33 33 33 35 38 40 41 44 48 54 60 68 71 71
25 24 23 22 22 23 23 23 25 27 26 28 26 29 29 31 32 35 37 41 45 49 49 45 43 39 31 31 32 34 33 35 39 40 42 44 46 51 55 60 69 74 77 78
28 27 29 25 28 30 31 28 31 31 32 32 33 32 37 35 38 39 43 48 52 51 47 45 41 32 30 32 32 34 38 41 44 45 48 50 53 59 64 70 77 82 86 90
31 34 34 32 33 32 31 31 32 34 37 37 37 36 39 38 40 45 50 53 53 50 47 43 33 32 35 33 34 40 42 42 42 47 52 57 62 66 73 78 84 89 94 92
39 40 41 42 38 44 36 35 35 34 33 35 35 37 38 38 45 50 52 54 50 47 42 35 33 35 34 35 38 41 41 43 48 52 58 63 70 75 78 82 87 94 98 88
45 42 43 45 41 33 28 25 28 30 28 31 34 37 41 45 50 49 45 48 48 45 37 34 36 35 35 38 41 41 44 50 54 58 65 74 83 85 86 88 93 99 96 76
37 35 34 36 45 41 23 28 30 33 35 32 34 40 43 45 43 48 51 51 47 40 36 39 38 37 39 42 44 47 50 53 58 65 74 84 90 91 91 97 98 95 75 64
31 34 35 37 44 31 23 28 34 40 44 40 41 41 40 45 48 52 52 50 46 39 42 41 40 41 41 41 46 48 51 57 63 75 86 88 91 93 97 97 97 68 62 64
32 39 35 35 45 40 26 34 44 42 39 42 43 41 43 47 52 53 53 52 44 45 46 43 42 42 40 45 48 50 55 61 73 85 87 85 89 97 97 96 79 66 64 63
30 25 30 31 35 30 32 34 42 44 42 42 43 46 47 52 56 56 55 49 47 48 47 44 43 40 43 46 50 55 62 69 82 85 76 78 87 97 96 76 68 64 62 59
28 31 31 30 26 27 29 36 41 48 49 50 48 50 53 58 59 58 54 49 49 50 47 45 40 42 45 49 54 61 68 79 84 73 69 73 79 82 76 66 62 59 57 56
32 33 27 23 26 31 33 42 43 46 53 54 50 51 57 63 63 62 53 50 54 52 48 42 39 43 44 47 55 65 75 83 78 69 69 72 75 72 71 67 62 57 57 57
28 27 31 27 30 34 32 39 45 46 51 54 51 55 59 66 66 56 54 55 56 52 47 40 40 41 44 48 58 70 83 84 74 73 78 78 75 72 70 68 62 62 60 67

GFSCGP_prec_cthk_045.txt.gz
RH
12 13 12 13 13 11 10 12 12 14 17 16 14 15 16 18 18 18 17 16 16 16 17 18 18 18 18 18 18 18 18 16 15 15 14 13 13 13 13 13 12 12 11 12
12 12 15 12 13 13 14 13 16 17 17 16 16 18 18 18 17 17 17 16 16 16 17 18 18 19 19 19 19 18 17 16 16 15 15 14 14 14 13 13 14 13 12 12
14 18 15 14 15 16 16 17 16 16 19 19 20 15 15 17 17 17 18 17 17 18 18 18 18 19 19 19 18 18 18 17 17 17 17 17 17 17 17 17 17 18 19 18
16 17 16 16 17 17 18 18 17 19 21 19 20 12 17 17 18 17 18 17 17 18 19 19 18 18 18 19 20 19 18 18 18 18 18 18 19 18 19 19 19 20 21 21
20 19 18 19 18 18 19 20 20 22 21 17 16 20 18 18 18 17 17 17 18 18 18 18 18 17 18 18 19 19 21 20 19 20 20 20 21 21 21 21 21 21 20 20
21 20 18 20 20 19 20 20 20 20 17 20 17 19 17 19 16 15 16 17 17 17 18 18 19 19 20 20 22 22 22 21 22 22 23 24 23 24 23 22 22 21 20 20
20 20 18 18 20 21 22 21 18 25 29 24 22 19 15 18 15 15 16 16 16 17 18 20 21 22 22 22 23 24 24 25 26 26 26 26 25 23 23 21 20 20 21 22
19 23 22 21 22 22 20 18 17 20 19 19 22 19 18 16 15 15 16 16 17 19 20 21 23 23 24 25 26 27 28 30 30 28 26 25 24 23 21 21 22 22 23 24
18 19 20 20 21 20 21 17 21 17 17 19 15 17 16 16 15 16 17 18 20 21 22 24 25 25 27 28 30 32 33 32 29 26 25 25 24 23 24 25 24 26 27 29
19 17 18 18 18 17 17 20 21 23 21 21 16 18 19 19 18 18 19 20 21 23 24 26 27 29 31 33 35 36 34 31 27 26 26 25 27 28 28 28 30 33 34 36
18 15 17 15 16 17 20 19 19 20 20 21 21 19 20 19 20 21 22 22 24 27 30 30 31 34 37 39 40 37 33 27 27 27 27 29 29 29 31 33 34 35 38 42
18 17 16 16 18 18 19 20 20 24 24 24 25 22 18 20 22 23 24 25 28 32 32 34 37 42 44 44 40 34 29 28 28 28 30 31 32 34 36 37 38 41 44 46
20 19 21 22 25 24 20 20 21 21 26 26 27 22 22 26 29 29 29 30 33 32 37 40 45 47 47 42 36 32 28 29 30 31 32 33 36 38 40 43 45 49 51 53
23 22 22 24 25 25 23 23 22 23 25 24 24 26 28 34 35 34 32 32 34 38 41 44 47 49 44 38 33 28 30 31 32 33 35 37 40 45 47 49 51 54 58 60
26 25 23 23 21 22 22 22 23 27 26 29 26 31 33 35 36 35 34 37 41 44 45 48 49 44 39 35 30 31 32 34 35 36 38 41 43 46 50 54 57 65 69 73
29 28 28 26 26 30 30 30 31 30 31 30 33 35 37 36 34 34 36 38 41 44 47 46 43 40 36 31 33 33 35 36 37 40 41 43 46 50 55 61 71 78 86 87
34 34 38 36 34 34 33 32 30 28 27 29 31 30 30 30 30 33 38 40 41 43 41 42 41 36 33 36 35 36 37 38 40 41 43 43 51 55 64 74 83 87 87 88
38 39 40 43 38 39 32 25 22 23 24 25 25 27 28 31 33 36 36 35 37 39 42 41 37 35 37 37 39 39 40 40 41 43 46 50 58 67 78 79 81 85 94 97
38 34 36 40 34 24 20 22 21 21 20 21 23 26 28 31 34 36 33 36 40 42 43 40 35 37 39 40 41 41 41 42 42 44 50 59 74 79 70 76 86 98 98 98
27 26 28 30 42 38 23 21 22 25 27 29 30 32 33 34 36 37 37 41 44 44 43 36 38 40 43 45 43 42 43 43 46 50 56 70 77 68 70 81 94 95 84 75
26 27 31 33 43 32 23 27 26 33 39 37 36 37 39 40 42 41 43 45 47 46 42 39 42 44 46 46 45 44 45 46 49 55 67 77 66 67 72 75 74 69 69 66
28 34 36 34 43 44 30 29 32 33 32 36 39 43 43 43 46 47 48 50 50 48 42 42 44 47 48 46 45 45 47 48 55 65 76 68 66 71 72 74 67 64 63 60
29 25 28 30 34 29 32 31 31 33 35 38 43 44 47 49 52 53 55 56 56 49 44 46 49 49 48 45 46 46 47 53 62 76 71 67 75 74 71 73 70 68 65 63
30 27 30 30 25 27 31 34 41 44 43 39 38 35 41 46 52 55 59 61 57 51 48 52 53 50 46 45 43 45 52 60 74 73 68 74 78 75 74 78 75 67 64 66
30 31 27 28 28 28 32 38 39 36 31 28 32 37 40 46 49 55 60 61 55 51 55 57 51 47 44 41 40 47 58 71 75 70 74 79 81 74 74 78 75 72 71 72
33 33 34 34 34 33 28 29 31 32 32 35 39 40 46 52 58 67 72 64 59 60 60 54 47 43 41 38 41 50 63 76 72 73 80 87 83 79 82 83 88 94 97 98

GFSCGP_prec_cthk_051.txt.gz
RH
40 37 28 24 19 15 15 14 14 13 15 16 17 17 18 16 16 18 18 18 17 16 16 15 17 17 18 18 18 17 16 14 12 11 11 11 11 11 12 12 12 12 12 13
25 19 15 15 16 17 16 15 14 16 17 18 19 17 14 16 17 18 19 19 17 16 16 17 17 18 18 18 17 16 15 15 13 12 14 14 14 15 15 15 15 16 16 17
18 17 17 17 17 17 16 16 18 18 19 18 19 19 17 18 18 18 19 20 18 17 17 17 17 17 18 18 18 16 16 16 14 15 16 17 17 18 18 18 18 18 18 19
16 15 15 16 16 16 18 19 20 21 22 24 19 26 18 18 19 20 20 20 19 18 17 17 17 18 18 18 18 17 17 17 17 18 20 20 21 22 22 21 21 21 21 21
16 17 18 19 19 19 21 20 20 19 21 22 21 25 19 21 23 24 23 19 18 18 18 18 19 18 19 19 18 18 18 20 21 23 24 24 25 26 24 23 22 22 21 20
18 18 18 20 21 21 21 19 18 21 26 31 25 25 24 26 24 23 22 19 18 19 19 19 19 19 20 20 19 20 22 25 26 27 28 29 29 28 25 23 21 19 18 17
21 22 22 21 20 20 20 23 31 32 39 36 26 27 24 23 21 21 20 18 19 20 20 20 19 21 21 21 22 24 27 29 31 32 33 32 30 26 22 20 18 18 17 18
25 28 23 24 22 23 27 27 33 29 35 26 23 23 21 22 23 21 20 20 21 21 22 22 21 23 24 25 26 28 31 34 34 33 32 31 27 21 19 19 20 19 19 20
21 25 23 23 22 22 24 24 23 22 20 22 21 23 24 25 23 22 22 24 25 23 22 23 25 28 28 30 31 32 34 34 33 33 29 25 22 21 21 21 21 21 22 23
22 20 22 21 20 20 22 22 24 26 25 27 26 25 26 24 24 24 24 24 23 23 25 28 31 31 32 32 31 32 33 32 31 28 27 24 21 22 23 23 23 25 25 27
21 20 20 19 20 22 22 20 20 22 27 31 30 27 25 26 24 24 24 24 26 28 30 31 31 31 30 29 31 33 33 30 28 29 25 23 24 24 24 26 27 28 29 31
21 22 23 20 20 20 22 23 25 34 28 34 43 35 24 24 25 26 28 30 32 33 32 31 30 29 30 32 33 32 30 31 31 26 24 24 25 26 27 29 30 31 31 34
23 22 26 24 26 26 24 24 24 25 32 29 36 28 25 28 30 32 33 33 31 28 25 24 26 29 31 32 30 31 33 33 29 26 26 26 29 30 31 31 32 34 35 36
22 25 27 33 27 26 24 24 24 26 42 33 35 32 34 36 35 32 26 24 22 23 23 25 27 29 30 31 32 34 34 30 27 28 29 31 32 33 34 35 36 39 41 45
25 27 27 27 28 28 28 29 31 31 32 35 33 33 30 24 21 21 21 22 23 24 26 28 29 30 32 34 36 38 34 30 31 32 34 35 35 36 35 37 42 45 49 57
31 32 32 32 31 31 32 33 32 32 32 31 27 24 21 21 21 22 24 26 26 27 27 29 32 35 37 38 39 39 34 34 35 37 37 36 38 38 39 45 47 51 60 57
39 41 44 45 42 38 34 29 26 25 24 24 24 22 21 22 23 25 25 25 27 28 29 34 37 38 40 44 45 40 37 37 37 39 40 41 41 41 46 49 54 62 57 63
43 41 43 49 37 41 26 23 21 22 24 23 23 24 24 27 28 29 31 33 33 32 34 37 40 42 46 48 44 40 40 39 43 44 43 44 43 45 49 56 63 61 64 63
31 32 35 40 45 28 18 21 22 22 23 25 26 28 29 29 29 32 32 30 30 32 32 31 37 44 47 48 42 40 41 47 49 47 46 43 44 50 58 65 64 67 65 65
25 26 31 36 41 42 25 23 24 25 31 28 31 32 32 31 36 33 30 31 34 33 34 39 45 48 47 41 41 44 51 53 51 46 42 43 49 60 69 66 73 69 68 79
30 32 34 40 46 39 32 31 29 33 36 35 35 35 35 37 38 34 33 33 35 38 41 45 48 49 48 46 48 55 56 52 45 41 40 46 59 73 71 75 77 72 84 92
32 38 41 43 50 50 35 35 36 37 37 37 37 38 38 37 32 32 35 38 41 44 47 51 55 57 50 53 56 56 52 45 41 40 43 56 74 74 81 83 80 88 93 93
35 35 44 47 49 43 41 41 40 41 40 40 40 38 36 32 31 36 39 41 45 49 55 59 62 52 56 61 59 52 46 41 38 42 55 72 78 84 90 89 92 94 94 93
38 38 41 41 39 41 41 41 40 40 41 38 32 31 31 33 36 38 40 44 48 53 60 57 52 53 60 60 53 48 43 38 40 49 67 81 82 92 96 96 95 94 93 91
38 38 40 41 42 43 43 41 39 35 29 27 28 30 33 34 35 38 42 47 53 59 57 57 56 60 59 54 50 43 37 37 43 62 80 84 93 97 98 98 96 93 94 95
40 40 43 44 42 40 37 37 35 31 32 33 33 32 34 36 36 39 48 53 60 58 59 61 62 60 55 50 45 38 35 37 52 78 85 90 95 98 98 96 95 96 97 98

GFSCGP_prec_cthk_057.txt.gz
RH
38 37 35 37 36 32 32 35 29 22 17 19 18 16 14 15 17 17 18 19 21 20 21 21 19 18 17 18 19 20 19 18 16 16 15 15 15 17 19 20 20 20 20 19
33 33 31 31 33 35 32 29 23 18 18 18 16 16 15 15 16 17 18 20 20 21 21 21 19 18 18 18 20 20 19 17 18 18 18 18 20 21 21 22 23 23 23 21
36 37 36 35 33 28 24 20 19 19 18 17 18 18 16 14 16 17 18 19 20 20 21 21 20 19 19 19 19 20 21 20 20 20 20 22 22 23 24 26 26 26 26 23
35 36 31 27 22 21 20 19 18 19 21 23 21 26 16 15 17 17 19 20 21 23 22 20 20 20 20 20 22 23 23 23 22 22 23 24 25 26 27 28 28 26 22 19
31 30 26 21 19 18 19 20 21 21 24 24 21 23 16 19 20 22 22 22 23 23 21 21 21 21 22 23 24 25 26 25 24 26 26 26 27 27 28 27 24 21 19 16
22 21 20 19 19 19 20 21 24 28 28 29 21 22 22 24 26 24 24 23 23 22 21 22 22 23 24 26 26 27 27 26 27 28 27 27 28 28 26 24 21 20 18 15
19 19 18 18 20 22 24 24 26 25 33 28 27 27 24 24 24 22 22 23 22 23 24 24 24 25 27 28 28 28 29 29 29 29 29 28 27 26 24 23 22 21 17 15
22 24 22 23 23 24 25 24 28 25 34 35 26 28 23 21 21 21 23 23 24 24 25 25 26 27 28 29 30 32 31 29 29 28 28 26 26 25 25 25 24 20 17 17
24 23 23 24 24 23 25 29 27 29 28 27 24 20 21 21 21 23 24 24 26 27 26 26 27 28 32 34 34 31 28 28 27 27 27 27 27 27 27 28 24 20 20 21
22 22 23 24 24 25 25 25 28 30 23 25 27 24 27 24 24 24 25 27 27 26 27 30 33 35 36 32 29 27 26 26 27 28 29 29 31 32 31 28 23 23 24 23
22 22 22 22 23 23 25 26 27 28 31 32 30 24 25 26 26 27 26 25 26 29 33 35 36 32 29 27 26 25 26 28 29 30 31 32 33 31 29 25 25 27 26 25
21 22 23 21 21 22 24 24 25 29 26 34 42 38 27 26 27 27 28 29 32 35 35 32 27 25 24 25 25 27 26 27 29 30 32 33 32 29 27 28 28 26 26 27
23 22 23 23 25 25 23 25 29 34 36 35 39 31 28 29 30 30 32 35 36 32 26 25 24 25 26 26 26 28 28 30 32 33 33 31 30 29 27 26 25 27 28 28
24 26 25 28 27 28 27 27 27 29 42 34 35 31 32 34 35 36 36 31 26 25 25 26 26 27 27 27 27 28 31 33 33 32 31 29 26 25 26 28 29 29 30 34
25 23 28 29 30 31 32 32 32 33 35 38 36 38 35 34 32 29 26 24 25 26 27 28 27 27 29 26 28 30 33 33 32 30 27 27 28 29 30 29 29 32 37 43
31 32 36 35 39 41 41 40 42 42 39 34 30 30 29 26 26 25 25 27 28 28 27 28 29 27 26 29 32 33 34 32 31 31 30 30 31 30 30 32 34 40 42 46
39 44 46 45 45 43 37 30 28 26 24 22 23 23 26 26 26 27 29 30 29 28 28 28 27 29 32 33 34 35 35 35 34 31 30 32 31 32 33 37 40 43 49 57
46 47 48 50 37 34 20 22 20 20 21 23 25 26 26 28 30 32 34 35 33 33 31 31 32 32 33 34 35 36 37 37 31 31 34 35 34 34 37 40 44 51 61 72
40 40 43 41 42 25 18 18 19 21 25 30 32 35 37 37 37 38 38 38 37 33 31 29 30 31 33 36 38 39 38 32 34 37 36 37 35 35 39 44 53 65 76 77
31 30 29 35 32 29 14 22 27 29 36 35 38 39 40 40 40 39 39 36 28 27 27 28 31 34 36 39 41 38 34 36 38 38 38 36 34 38 44 53 68 80 83 90
28 30 31 39 41 31 27 29 30 35 36 39 41 42 43 42 40 34 29 26 26 26 28 30 34 38 43 45 39 36 39 41 40 39 37 34 35 43 53 67 83 86 91 93
27 33 34 41 46 36 29 32 36 38 40 43 47 47 43 38 33 28 26 25 26 27 30 34 39 44 48 41 38 40 44 44 43 40 36 33 41 50 63 84 87 92 92 91
31 28 35 35 36 31 34 36 38 41 47 50 49 45 39 33 28 27 26 27 28 32 36 40 44 48 44 42 44 45 48 48 44 38 35 39 46 58 79 90 91 93 93 91
28 28 32 34 32 35 38 43 48 51 50 48 42 37 32 29 29 29 28 30 33 36 42 47 50 46 45 49 50 50 51 49 43 38 40 44 53 69 90 95 94 94 93 93
28 31 36 39 40 43 45 47 48 46 42 39 36 32 30 30 28 28 29 32 37 42 48 50 48 48 51 53 55 57 53 48 43 41 38 48 63 86 93 96 96 94 95 97
31 34 39 40 40 44 46 45 44 42 38 35 31 30 29 29 29 29 30 35 38 43 44 49 52 53 55 61 63 62 55 47 44 39 43 55 80 91 96 93 93 97 96 97

GFSCGP_prec_cthk_060.txt.gz
RH
54 56 58 63 58 49 44 38 34 35 31 26 22 19 15 15 16 16 17 18 19 20 22 22 22 21 20 19 20 20 21 21 19 18 18 18 18 19 20 21 22 23 23 24
37 40 40 37 37 35 33 33 34 30 26 22 20 17 14 15 16 16 17 18 20 22 22 23 22 21 20 20 20 21 21 21 21 20 20 20 20 22 23 24 25 25 26 25
34 34 33 32 32 35 37 34 26 23 22 19 19 17 15 14 15 16 17 19 21 22 22 23 23 21 20 20 21 21 23 24 24 23 22 22 23 24 25 27 27 27 26 24
32 34 37 37 37 35 30 25 23 22 21 23 20 24 16 16 17 18 19 19 20 22 24 24 23 22 21 21 23 24 26 27 28 27 25 25 26 27 28 27 26 26 24 21
35 37 38 35 31 26 23 22 22 22 23 23 21 25 16 17 21 21 22 22 23 25 25 24 23 23 23 24 25 27 28 29 29 28 28 28 29 29 27 27 25 24 22 21
40 38 33 30 28 25 22 20 23 28 28 27 23 22 22 23 26 24 22 24 24 24 24 25 25 25 25 27 28 29 30 30 30 30 30 30 30 28 27 26 24 23 22 22
31 31 26 23 22 21 21 24 29 22 30 26 27 28 25 24 24 25 24 23 23 24 26 27 26 26 28 29 30 31 31 32 32 33 33 30 28 26 25 25 24 23 23 23
24 23 21 20 20 22 24 25 28 23 30 33 27 30 25 23 22 22 23 23 25 27 27 27 28 29 30 31 31 32 35 36 36 32 28 27 25 25 25 26 25 25 25 24
23 21 22 24 24 25 27 29 27 30 29 29 27 22 23 22 21 23 24 26 27 27 27 28 29 29 30 32 36 38 37 33 28 26 25 24 25 27 27 26 27 27 25 22
22 22 23 24 25 26 26 27 29 32 26 24 27 26 28 25 25 26 26 27 27 28 28 29 31 34 37 39 37 31 28 26 25 24 25 27 28 28 28 29 28 25 24 23
23 23 21 23 24 26 28 28 29 29 32 33 31 24 24 26 27 27 27 27 28 29 30 32 36 36 35 30 27 26 26 25 25 27 28 28 29 30 29 27 25 24 23 22
21 22 21 20 21 22 24 25 27 32 26 35 40 35 27 27 27 28 30 30 31 34 37 37 34 29 25 24 24 25 26 25 26 27 28 30 30 29 27 25 24 24 23 24
23 22 23 22 25 25 23 25 29 32 35 38 40 33 29 30 31 32 34 37 39 38 33 28 24 23 23 24 25 26 26 26 28 30 31 31 29 27 25 24 24 24 24 24
25 26 24 28 26 28 27 26 29 31 42 34 36 32 34 37 38 39 38 35 32 27 25 25 25 24 23 23 24 24 27 30 32 33 32 29 29 27 24 24 25 24 25 27
25 23 26 27 29 31 32 32 33 34 35 38 38 40 35 31 31 31 29 27 26 26 26 27 25 23 24 26 29 31 32 33 32 31 31 30 25 25 26 26 25 26 29 35
29 30 35 35 39 41 42 43 43 42 39 36 30 26 24 25 25 26 27 27 29 31 32 32 32 32 32 32 30 30 32 33 33 32 29 26 27 28 27 26 26 30 36 41
38 42 45 46 46 44 40 32 30 27 24 22 22 21 24 27 30 33 35 36 36 36 37 37 33 31 27 27 29 31 32 34 34 29 27 29 30 28 27 27 31 35 42 49
45 48 50 53 39 35 21 22 20 19 19 21 25 29 32 34 36 37 38 39 38 38 34 27 26 26 28 30 32 34 36 37 30 29 31 33 31 29 29 31 35 41 50 63
42 41 45 43 42 24 15 17 19 22 24 29 30 32 35 36 38 40 42 42 35 28 25 25 27 28 30 32 35 38 40 33 31 32 33 34 34 32 32 35 43 51 62 76
32 31 32 36 31 25 12 18 22 25 31 29 32 35 37 39 43 46 41 33 26 24 25 25 27 29 32 36 39 39 33 33 34 35 37 38 35 35 37 43 50 61 76 86
31 33 32 40 38 27 20 23 27 31 29 33 34 36 41 48 46 39 33 27 26 27 26 27 31 34 37 40 41 36 36 38 39 41 39 37 38 39 45 50 60 74 88 90
25 31 33 38 42 31 24 28 30 30 33 37 43 46 46 45 40 33 28 27 27 27 28 32 35 39 44 44 38 40 42 43 45 44 41 40 41 44 51 58 70 90 93 92
30 25 31 31 29 23 28 32 34 38 41 44 45 44 43 39 33 29 28 27 27 29 31 35 39 45 45 41 44 45 46 51 51 50 46 44 42 48 55 69 89 94 92 92
27 27 28 28 24 27 31 36 39 41 43 44 43 41 38 34 31 30 28 28 29 31 35 38 42 42 44 48 51 53 57 58 57 54 49 42 44 50 65 89 97 95 93 94
25 26 27 27 26 29 32 36 40 44 45 42 40 37 34 32 31 31 30 30 31 34 37 38 40 42 48 54 59 61 63 65 62 54 45 44 46 57 82 96 97 95 96 98
24 24 27 29 28 31 34 40 45 43 42 40 37 37 36 34 32 31 31 32 34 37 40 42 44 44 50 57 65 69 71 68 59 48 43 45 53 74 94 96 95 98 97 98

GFSCGP_prec_cthk_063.txt.gz
RH
45 43 48 51 53 55 54 59 56 44 36 35 33 28 20 18 17 17 17 17 18 20 22 23 24 24 24 21 20 21 22 23 23 22 19 19 20 20 21 22 23 24 25 26
50 45 49 56 60 62 58 49 39 39 37 32 28 22 16 15 16 16 17 18 19 21 22 25 25 26 24 21 21 22 23 24 23 23 22 22 22 22 23 24 26 27 28 27
42 48 53 53 50 43 38 36 34 35 31 24 23 19 15 15 16 16 17 18 19 21 23 25 26 26 24 23 22 23 23 24 26 27 27 27 26 25 26 28 29 30 28 26
39 40 39 38 36 35 34 36 34 31 25 23 21 21 17 15 18 18 20 21 20 22 24 26 27 27 24 24 24 24 26 27 28 29 30 30 29 28 29 31 31 28 25 23
37 37 36 36 37 37 36 32 28 25 24 23 22 23 17 20 22 20 21 22 23 24 27 29 29 27 26 25 25 26 28 29 30 32 32 31 31 32 33 31 28 25 24 23
38 40 41 40 38 34 32 27 26 28 26 25 23 22 19 23 23 23 24 24 25 26 28 27 27 27 26 27 29 29 31 32 32 33 33 34 35 34 30 27 24 24 23 23
43 44 43 39 35 30 26 27 27 22 25 23 27 27 24 24 23 25 26 26 24 24 26 27 29 30 29 30 30 32 32 33 34 36 37 36 32 28 26 25 24 24 23 23
36 34 34 31 25 23 23 25 26 22 24 28 28 28 26 24 24 25 25 24 25 27 28 29 30 31 32 33 32 33 35 38 40 38 32 29 28 26 25 26 26 25 25 25
27 24 23 22 23 25 28 29 26 28 28 27 26 23 24 23 22 23 25 26 28 28 28 29 29 30 31 33 35 38 40 39 32 29 29 27 26 27 27 27 26 26 26 23
22 22 22 24 25 26 27 27 28 30 28 23 24 25 25 24 24 26 27 28 28 29 30 30 32 33 36 38 39 37 32 28 27 27 27 28 29 27 26 27 27 25 24 23
24 24 22 24 25 28 29 30 30 29 29 27 27 23 25 26 27 28 29 29 30 32 32 34 37 38 38 35 28 24 23 24 25 27 29 29 27 28 30 28 26 25 22 20
23 23 22 21 22 22 24 26 27 29 28 32 32 29 27 29 30 31 32 33 34 37 39 39 35 29 24 22 21 21 23 26 27 28 27 30 32 31 28 26 24 22 21 22
22 23 23 21 24 25 24 26 30 32 33 34 33 30 32 33 33 35 37 39 39 36 31 27 24 23 22 22 22 22 24 27 30 32 32 32 30 28 26 23 23 23 22 21
26 26 24 26 27 29 27 26 30 31 36 35 36 34 34 37 38 38 33 31 30 26 25 25 26 29 30 31 31 31 32 32 30 31 31 31 30 26 23 24 24 24 22 22
25 24 27 27 28 30 31 32 34 35 34 34 35 36 36 32 29 27 26 26 27 30 32 34 34 34 33 32 30 27 27 29 31 32 32 32 25 25 26 25 25 23 23 26
27 30 34 35 39 40 41 41 41 39 36 33 31 28 23 22 22 24 28 33 35 35 35 35 34 32 29 25 26 28 30 32 33 34 34 27 28 28 27 26 25 24 26 32
36 40 42 42 43 41 37 31 30 27 25 24 22 20 21 25 30 33 35 35 36 38 38 35 30 26 25 25 28 31 33 35 36 36 30 31 31 29 28 27 27 29 35 40
41 44 46 46 37 35 21 21 20 20 18 19 21 25 28 30 33 35 35 37 41 41 36 28 25 24 27 29 30 33 36 39 38 33 34 35 34 32 31 30 31 38 43 48
41 39 42 40 35 23 14 17 18 20 19 23 25 28 30 32 33 36 41 46 45 36 28 25 25 27 29 32 34 37 41 39 36 37 38 38 38 36 34 34 37 44 49 55
34 32 32 36 29 27 12 16 18 21 26 24 27 31 35 39 42 45 45 40 33 28 26 26 27 30 33 36 39 42 38 36 38 40 40 42 43 41 39 42 48 50 58 65
32 31 31 36 33 24 17 19 21 25 23 27 30 34 37 40 41 42 39 34 30 27 27 28 30 34 37 39 40 36 36 39 41 42 45 46 45 45 46 48 50 56 67 86
24 29 30 35 35 26 19 22 24 24 27 30 33 37 41 44 43 40 36 32 29 28 28 30 32 36 38 37 35 37 41 45 46 50 52 51 53 50 48 48 54 69 91 96
26 20 25 25 23 18 20 21 23 26 30 33 37 41 45 43 40 37 33 31 30 30 30 32 33 35 37 36 37 38 44 50 55 56 56 56 49 47 48 54 68 93 96 95
21 22 24 24 20 20 22 24 27 31 35 40 43 44 40 39 38 34 32 31 30 30 31 33 36 37 38 40 45 45 49 56 63 62 58 48 46 46 54 70 97 97 95 94
21 23 24 24 22 24 24 27 32 35 39 43 42 39 39 38 36 34 33 33 32 33 35 38 39 41 44 48 50 55 66 72 70 64 51 43 46 52 68 95 97 96 96 96
21 21 22 23 21 23 26 31 35 40 41 38 37 38 37 37 37 35 34 34 35 37 38 40 44 47 51 53 57 73 82 80 70 57 44 45 51 65 93 97 96 96 97 97

GFSCGP_prec_cthk_069.txt.gz
RH
38 40 39 44 41 50 63 63 62 64 59 59 58 54 55 42 36 30 21 19 20 21 23 23 22 23 23 24 24 25 25 25 23 23 25 25 24 21 22 22 23 25 27 27
42 41 42 45 47 48 55 59 61 62 58 63 68 62 49 38 30 22 19 19 19 21 22 22 22 24 25 26 26 27 27 24 24 26 28 28 27 27 29 29 28 29 30 30
40 44 46 52 43 40 49 57 59 57 61 64 53 47 37 29 22 19 19 18 18 21 23 24 23 25 27 28 29 29 28 27 27 28 29 29 29 30 30 31 33 33 32 32
50 50 40 42 48 47 53 54 57 56 50 48 41 34 23 22 21 18 18 20 22 23 25 25 25 28 30 31 32 32 29 27 27 28 29 31 34 36 38 38 37 36 36 36
39 37 43 46 44 48 56 49 48 45 44 40 30 26 17 19 20 19 21 22 22 24 26 27 28 31 33 33 33 32 29 29 29 30 33 35 38 39 39 40 39 40 38 33
38 43 44 44 51 46 45 43 42 41 35 28 21 23 19 22 20 20 23 24 25 27 28 29 29 31 33 34 34 31 31 32 33 35 37 38 39 41 43 45 43 36 33 31
42 42 46 48 49 47 45 43 37 35 36 29 27 22 21 21 21 23 26 26 26 26 28 29 31 33 34 35 35 35 35 35 36 38 39 41 44 46 45 40 35 32 29 29
44 43 40 41 41 40 38 37 30 30 27 28 29 21 24 22 22 24 26 25 25 27 29 32 35 36 37 37 36 36 37 39 41 44 46 47 46 40 34 30 30 30 31 32
46 47 44 43 42 38 38 33 32 24 21 20 19 24 22 22 23 24 25 26 27 28 30 32 33 35 36 37 38 40 42 45 47 46 40 33 30 28 27 30 33 36 38 36
42 41 40 38 32 31 31 28 25 24 25 28 26 22 23 23 23 24 26 27 28 29 31 33 34 35 37 40 42 43 40 34 30 29 28 28 30 33 34 36 37 36 32 30
38 33 31 26 25 26 25 24 23 26 25 26 24 28 25 23 24 26 28 31 32 33 34 35 37 39 38 33 28 26 26 27 28 31 33 34 33 34 35 35 33 30 30 29
23 23 24 23 23 23 25 25 25 26 28 23 24 24 24 26 27 30 31 33 34 35 36 34 28 25 25 26 28 30 29 29 30 32 33 34 36 35 31 31 32 32 30 28
24 22 23 23 21 20 21 21 22 24 26 26 28 30 30 30 30 31 31 32 30 27 23 23 26 29 30 31 31 31 31 31 31 33 33 32 31 32 33 33 32 31 30 29
23 22 23 26 28 22 23 23 23 24 28 31 32 32 32 31 29 27 25 24 23 23 25 28 30 31 31 31 32 33 34 35 34 32 31 32 34 34 34 32 31 31 32 31
25 23 21 22 23 24 23 25 27 29 29 30 32 31 28 24 21 19 19 20 23 26 28 29 31 31 33 35 36 33 31 29 29 31 33 35 35 35 32 32 32 31 30 30
25 28 24 25 26 28 30 30 30 30 30 26 24 21 18 17 16 18 21 23 27 30 33 33 34 36 38 38 33 29 31 32 33 34 36 37 32 32 31 31 32 32 33 35
26 28 32 36 36 35 34 33 29 26 22 19 19 20 17 15 17 21 24 27 30 32 34 36 38 40 40 32 28 30 32 34 36 37 34 32 31 31 34 36 37 38 39 41
34 35 38 44 39 38 30 22 18 17 15 14 15 16 17 19 21 24 26 29 32 34 37 40 42 40 32 30 31 32 34 36 36 31 31 32 33 34 37 38 41 42 45 51
38 39 43 44 36 26 22 16 14 13 12 13 16 17 19 21 23 26 29 33 36 38 41 41 37 31 30 30 32 33 35 34 32 33 36 37 38 40 43 44 46 48 54 51
37 36 38 35 45 31 16 11 12 12 15 17 16 17 19 23 26 34 36 38 40 41 40 35 30 30 33 36 36 34 32 34 36 39 39 42 50 54 54 53 55 60 56 56
37 34 33 28 29 18 15 13 13 15 21 18 17 19 23 27 31 36 39 41 41 39 34 30 31 33 38 38 35 33 35 37 40 42 45 54 62 65 63 64 60 56 58 65
31 29 24 21 26 26 15 15 15 19 17 17 19 23 27 31 35 40 42 41 37 33 30 32 36 39 38 37 37 37 38 42 44 48 53 64 74 72 67 58 55 59 69 83
23 17 19 17 20 16 14 16 17 17 19 20 24 26 31 36 40 40 37 35 35 33 35 39 41 39 39 39 39 40 44 45 49 55 60 75 75 70 60 55 56 69 91 96
16 15 14 16 13 14 14 16 16 18 21 25 27 31 34 39 38 37 36 34 34 37 41 44 43 41 40 40 42 44 47 47 53 58 64 76 70 64 54 54 67 93 95 96
17 16 14 15 14 15 15 16 19 21 24 26 30 34 38 37 36 34 36 37 39 43 46 46 46 45 44 45 46 48 50 51 59 63 70 74 66 55 50 58 92 95 96 98
16 13 15 14 15 15 16 17 19 23 27 30 35 37 35 35 34 37 38 41 44 48 48 47 47 47 47 47 47 51 54 57 65 68 76 71 58 50 52 77 92 95 96 97

GFSCGP_prec_cthk_072.txt.gz
RH
36 43 44 36 33 35 44 56 63 69 63 67 68 62 61 60 53 47 45 37 27 26 27 29 29 29 27 25 24 24 25 25 25 25 23 23 24 24 23 21 21 23 26 27
47 46 37 34 34 36 49 55 64 70 68 60 60 63 67 68 60 46 41 30 22 24 26 27 27 27 25 25 25 25 26 27 27 26 25 27 28 29 28 27 28 28 28 30
53 43 36 40 51 48 46 54 54 58 54 55 60 54 51 53 51 42 33 22 20 21 24 25 25 26 25 26 27 28 29 30 30 27 27 28 29 29 29 30 32 34 34 34
60 48 46 57 52 49 49 43 49 51 53 62 47 47 39 36 32 26 23 21 22 22 25 26 27 27 26 28 30 31 32 32 30 27 28 29 29 31 34 37 38 39 39 38
54 59 51 47 54 48 50 48 46 52 52 48 45 44 32 27 26 24 22 22 23 23 25 27 28 29 29 31 32 33 34 33 29 30 30 32 34 36 38 39 40 41 42 43
55 45 58 53 43 44 43 45 44 43 44 45 38 36 32 28 25 25 24 23 24 25 27 28 29 28 29 32 34 35 34 32 33 33 33 33 35 37 40 43 46 47 46 40
49 44 43 48 53 44 43 44 51 54 50 45 31 30 32 27 26 25 24 24 25 25 26 27 27 29 31 34 35 35 35 35 35 36 37 40 42 43 46 46 42 36 32 29
48 47 49 47 49 48 50 49 47 43 44 43 36 32 30 25 25 24 25 25 25 26 27 28 30 32 34 36 37 38 38 38 39 41 42 41 39 36 33 32 31 32 32 33
57 49 44 43 45 47 47 45 42 41 32 31 30 27 24 26 25 25 25 25 26 27 28 32 34 36 37 37 38 38 38 36 35 34 33 32 31 32 32 32 34 34 35 36
46 55 47 45 43 41 43 40 40 34 32 34 27 33 32 27 25 25 26 26 28 30 31 32 33 33 32 30 29 29 28 28 28 28 30 31 31 32 33 34 36 36 37 37
48 44 45 41 41 39 33 33 30 29 28 29 29 32 29 28 28 26 28 30 30 31 31 30 29 27 26 25 24 24 26 27 28 29 29 30 31 34 36 37 37 36 34 34
48 48 42 35 29 26 26 25 25 29 28 26 27 31 26 26 28 29 31 32 31 29 27 24 24 24 22 24 26 27 27 28 28 28 29 29 31 32 33 34 34 35 34 33
30 27 29 26 24 22 23 23 25 25 28 34 35 32 29 30 31 31 30 27 25 23 23 24 23 25 26 27 28 29 30 31 31 30 28 28 30 32 35 36 36 35 32 31
27 28 28 33 32 25 21 21 23 25 30 27 32 35 33 32 30 28 24 21 20 21 22 24 25 27 28 29 30 31 32 32 30 28 28 32 35 36 36 35 32 32 32 30
26 27 22 23 23 23 24 26 24 25 28 31 32 33 33 29 26 19 17 17 20 22 25 25 27 29 30 32 32 34 33 28 27 30 33 35 36 37 33 32 29 29 30 32
27 30 24 25 26 26 26 27 29 30 30 30 28 27 24 19 17 16 17 19 21 25 28 28 30 32 34 35 35 32 26 29 31 33 35 37 35 31 28 29 31 31 33 34
28 30 32 36 34 35 36 34 34 30 25 23 22 20 16 15 14 15 18 21 24 26 29 32 33 35 38 37 31 26 28 30 33 36 36 31 30 31 33 34 37 40 41 42
31 35 41 52 41 43 34 28 23 23 18 16 15 15 15 15 15 19 21 24 27 29 33 35 38 39 37 30 27 28 31 35 37 34 31 32 35 34 37 43 47 48 50 53
39 39 47 53 47 34 29 24 17 14 13 12 13 16 15 17 18 21 23 26 30 34 36 39 40 36 29 28 31 35 38 36 35 33 34 36 37 40 45 51 56 57 59 61
40 40 42 43 53 48 24 15 13 10 17 15 15 16 16 18 23 27 29 32 35 39 41 40 36 30 30 34 38 40 39 37 36 35 37 40 43 48 52 60 63 64 60 57
43 41 43 42 46 29 18 14 11 17 23 15 15 16 18 24 25 27 30 34 38 41 40 34 31 32 35 40 42 42 40 37 38 39 41 42 48 54 59 65 64 59 54 59
40 44 38 30 35 33 17 15 15 17 15 16 16 18 22 25 27 30 34 38 41 39 34 32 33 35 40 44 44 43 40 39 40 41 43 46 54 59 65 64 58 51 56 77
38 29 28 28 26 17 14 13 13 14 16 17 19 21 24 27 30 34 38 39 38 34 34 36 38 44 48 48 45 42 41 42 42 45 48 54 60 67 67 58 49 51 75 96
28 21 21 17 13 13 13 12 13 15 17 19 21 24 26 29 34 36 37 36 34 35 38 42 47 50 48 46 44 44 44 46 47 49 53 61 70 72 60 50 50 67 93 96
24 20 15 13 12 14 14 14 15 16 18 20 25 27 29 33 35 36 34 34 36 38 44 49 50 48 46 45 45 46 48 49 51 54 60 70 75 66 50 46 59 91 95 97
19 16 17 17 13 16 16 15 16 17 20 25 27 30 33 34 35 34 34 36 38 43 47 47 47 45 45 46 49 50 51 54 55 58 67 76 71 55 46 48 74 96 95 96